Time,TemperatureF,DewpointF,PressureIn,WindDirection,WindDirectionDegrees,WindSpeedMPH,WindSpeedGustMPH,Humidity,HourlyPrecipIn,Conditions,Clouds,dailyrainin,SolarRadiationWatts/m^2,SoftwareType,DateUTC
2013-04-22 00:00:00,51.4,49.7,30.09,NW,312,5.0,7.0,94,0.08,,,0.00,0,Wunderground v.1.15,2013-04-22 05:00:00,
2013-04-22 00:02:00,51.3,49.6,30.09,NW,309,6.0,7.0,94,0.06,,,0.00,0,Wunderground v.1.15,2013-04-22 05:02:00,
2013-04-22 00:04:00,51.3,49.6,30.10,NW,311,6.0,7.0,94,0.06,,,0.01,0,Wunderground v.1.15,2013-04-22 05:04:00,
2013-04-22 00:06:00,51.3,49.6,30.09,WNW,288,6.0,7.0,94,0.06,,,0.01,0,Wunderground v.1.15,2013-04-22 05:06:00,
2013-04-22 00:07:00,51.3,49.6,30.10,WNW,285,8.0,8.0,94,0.06,,,0.01,0,Wunderground v.1.15,2013-04-22 05:07:00,
2013-04-22 00:08:00,51.3,49.6,30.09,West,279,9.0,9.0,94,0.06,,,0.01,0,Wunderground v.1.15,2013-04-22 05:08:00,
2013-04-22 00:11:00,51.4,49.7,30.09,WNW,285,7.0,7.0,94,0.06,,,0.01,0,Wunderground v.1.15,2013-04-22 05:11:00,
2013-04-22 00:12:00,51.4,49.7,30.10,WNW,284,6.0,7.0,94,0.06,,,0.01,0,Wunderground v.1.15,2013-04-22 05:12:00,
2013-04-22 00:13:00,51.4,49.7,30.09,WNW,289,6.0,7.0,94,0.06,,,0.01,0,Wunderground v.1.15,2013-04-22 05:13:00,
2013-04-22 00:14:00,51.4,49.7,30.10,West,277,9.0,9.0,94,0.05,,,0.01,0,Wunderground v.1.15,2013-04-22 05:14:00,
2013-04-22 00:18:00,51.5,49.8,30.10,West,280,7.0,9.0,94,0.04,,,0.01,0,Wunderground v.1.15,2013-04-22 05:18:00,
2013-04-22 00:19:00,51.5,49.8,30.10,West,266,11.0,11.0,94,0.04,,,0.02,0,Wunderground v.1.15,2013-04-22 05:19:00,
2013-04-22 00:22:00,51.6,49.9,30.10,West,275,10.0,11.0,94,0.04,,,0.02,0,Wunderground v.1.15,2013-04-22 05:22:00,
2013-04-22 00:23:00,51.6,49.9,30.10,West,275,9.0,11.0,94,0.04,,,0.02,0,Wunderground v.1.15,2013-04-22 05:23:00,
2013-04-22 00:25:00,51.6,49.9,30.10,West,275,4.0,11.0,94,0.04,,,0.02,0,Wunderground v.1.15,2013-04-22 05:25:00,
2013-04-22 00:27:00,51.6,49.9,30.10,West,270,5.0,11.0,94,0.09,,,0.03,0,Wunderground v.1.15,2013-04-22 05:27:00,
2013-04-22 00:31:00,51.7,50.0,30.10,West,271,6.0,9.0,94,0.13,,,0.04,0,Wunderground v.1.15,2013-04-22 05:31:00,
2013-04-22 00:33:00,51.7,49.7,30.10,West,259,9.0,9.0,93,0.13,,,0.04,0,Wunderground v.1.15,2013-04-22 05:33:00,
2013-04-22 00:34:00,51.7,49.7,30.10,WSW,257,9.0,9.0,93,0.17,,,0.05,0,Wunderground v.1.15,2013-04-22 05:34:00,
2013-04-22 00:35:00,51.6,49.6,30.10,West,269,7.0,9.0,93,0.17,,,0.05,0,Wunderground v.1.15,2013-04-22 05:35:00,
2013-04-22 00:39:00,51.6,49.6,30.10,West,267,8.0,10.0,93,0.11,,,0.05,0,Wunderground v.1.15,2013-04-22 05:39:00,
2013-04-22 00:41:00,51.6,49.6,30.10,West,260,10.0,10.0,93,0.11,,,0.06,0,Wunderground v.1.15,2013-04-22 05:41:00,
2013-04-22 00:42:00,51.6,49.6,30.10,West,266,6.0,10.0,93,0.24,,,0.07,0,Wunderground v.1.15,2013-04-22 05:42:00,
2013-04-22 00:47:00,51.4,49.4,30.09,West,267,3.0,10.0,93,0.25,,,0.09,0,Wunderground v.1.15,2013-04-22 05:47:00,
2013-04-22 00:48:00,51.4,49.4,30.09,West,267,3.0,10.0,93,0.24,,,0.09,0,Wunderground v.1.15,2013-04-22 05:48:00,
2013-04-22 00:51:00,51.3,49.3,30.09,West,267,4.0,5.0,93,0.11,,,0.09,0,Wunderground v.1.15,2013-04-22 05:51:00,
2013-04-22 00:52:00,51.3,49.3,30.09,West,267,1.0,5.0,93,0.09,,,0.09,0,Wunderground v.1.15,2013-04-22 05:52:00,
2013-04-22 00:53:00,51.2,49.2,30.09,WSW,241,5.0,5.0,93,0.08,,,0.09,0,Wunderground v.1.15,2013-04-22 05:53:00,
2013-04-22 00:54:00,51.2,49.5,30.09,WSW,241,3.0,5.0,94,0.07,,,0.09,0,Wunderground v.1.15,2013-04-22 05:54:00,
2013-04-22 00:57:00,51.2,49.5,30.09,SW,235,3.0,5.0,94,0.05,,,0.09,0,Wunderground v.1.15,2013-04-22 05:57:00,
2013-04-22 00:58:00,51.2,49.5,30.09,SW,223,3.0,5.0,94,0.05,,,0.09,0,Wunderground v.1.15,2013-04-22 05:58:00,
2013-04-22 00:59:00,51.2,49.5,30.09,SW,221,3.0,5.0,94,0.04,,,0.09,0,Wunderground v.1.15,2013-04-22 05:59:00,
2013-04-22 01:00:00,51.2,49.5,30.09,SW,219,3.0,3.0,94,0.04,,,0.10,0,Wunderground v.1.15,2013-04-22 06:00:00,
2013-04-22 01:03:00,51.2,49.5,30.09,SSW,198,2.0,3.0,94,0.04,,,0.10,0,Wunderground v.1.15,2013-04-22 06:03:00,
2013-04-22 01:06:00,51.1,49.4,30.09,SSE,159,3.0,3.0,94,0.16,,,0.11,0,Wunderground v.1.15,2013-04-22 06:06:00,
2013-04-22 01:07:00,51.1,49.4,30.09,SSE,153,2.0,3.0,94,0.15,,,0.11,0,Wunderground v.1.15,2013-04-22 06:07:00,
2013-04-22 01:09:00,51.0,49.3,30.09,SE,145,4.0,4.0,94,0.11,,,0.11,0,Wunderground v.1.15,2013-04-22 06:09:00,
2013-04-22 01:10:00,51.0,49.3,30.08,SE,144,4.0,4.0,94,0.09,,,0.11,0,Wunderground v.1.15,2013-04-22 06:10:00,
2013-04-22 01:13:00,51.0,49.3,30.08,SE,137,4.0,5.0,94,0.09,,,0.12,0,Wunderground v.1.15,2013-04-22 06:13:00,
2013-04-22 01:15:00,51.0,49.3,30.08,SE,143,5.0,5.0,94,0.09,,,0.12,0,Wunderground v.1.15,2013-04-22 06:15:00,
2013-04-22 01:17:00,50.9,49.2,30.08,SSE,148,8.0,8.0,94,0.09,,,0.12,0,Wunderground v.1.15,2013-04-22 06:17:00,
2013-04-22 01:19:00,50.9,49.2,30.08,SE,140,6.0,8.0,94,0.07,,,0.12,0,Wunderground v.1.15,2013-04-22 06:19:00,
2013-04-22 01:20:00,50.9,49.2,30.08,SE,144,7.0,7.0,94,0.06,,,0.12,0,Wunderground v.1.15,2013-04-22 06:20:00,
2013-04-22 01:22:00,50.9,49.5,30.08,SE,141,7.0,7.0,95,0.06,,,0.13,0,Wunderground v.1.15,2013-04-22 06:22:00,
2013-04-22 01:24:00,50.9,49.5,30.08,SSE,149,6.0,7.0,95,0.06,,,0.13,0,Wunderground v.1.15,2013-04-22 06:24:00,
2013-04-22 01:26:00,50.9,49.5,30.08,SSE,155,7.0,7.0,95,0.06,,,0.13,0,Wunderground v.1.15,2013-04-22 06:26:00,
2013-04-22 01:28:00,51.0,49.6,30.08,SSE,148,6.0,7.0,95,0.06,,,0.13,0,Wunderground v.1.15,2013-04-22 06:28:00,
2013-04-22 01:29:00,50.9,49.5,30.08,SSE,150,6.0,7.0,95,0.06,,,0.13,0,Wunderground v.1.15,2013-04-22 06:29:00,
2013-04-22 01:30:00,50.9,49.5,30.08,SSE,149,6.0,6.0,95,0.07,,,0.14,0,Wunderground v.1.15,2013-04-22 06:30:00,
2013-04-22 01:31:00,50.9,49.5,30.08,SSE,148,6.0,6.0,95,0.07,,,0.14,0,Wunderground v.1.15,2013-04-22 06:31:00,
2013-04-22 01:32:00,51.0,49.6,30.08,SSE,154,5.0,6.0,95,0.07,,,0.14,0,Wunderground v.1.15,2013-04-22 06:32:00,
2013-04-22 01:34:00,51.0,49.6,30.08,SSE,155,6.0,6.0,95,0.07,,,0.14,0,Wunderground v.1.15,2013-04-22 06:34:00,
2013-04-22 01:38:00,51.0,49.6,30.08,South,171,5.0,10.0,95,0.11,,,0.15,0,Wunderground v.1.15,2013-04-22 06:38:00,
2013-04-22 01:39:00,51.0,49.6,30.08,South,184,4.0,10.0,95,0.18,,,0.16,0,Wunderground v.1.15,2013-04-22 06:39:00,
2013-04-22 01:40:00,51.1,49.7,30.08,South,172,6.0,7.0,95,0.18,,,0.16,0,Wunderground v.1.15,2013-04-22 06:40:00,
2013-04-22 01:41:00,51.1,49.7,30.08,SSE,155,7.0,7.0,95,0.18,,,0.16,0,Wunderground v.1.15,2013-04-22 06:41:00,
2013-04-22 01:42:00,51.1,49.7,30.08,South,171,6.0,7.0,95,0.21,,,0.17,0,Wunderground v.1.15,2013-04-22 06:42:00,
2013-04-22 01:46:00,51.2,49.8,30.07,SSE,162,7.0,9.0,95,0.16,,,0.18,0,Wunderground v.1.15,2013-04-22 06:46:00,
2013-04-22 01:47:00,51.3,49.9,30.07,South,173,6.0,9.0,95,0.16,,,0.18,0,Wunderground v.1.15,2013-04-22 06:47:00,
2013-04-22 01:49:00,51.3,49.6,30.07,SSE,166,6.0,9.0,94,0.14,,,0.18,0,Wunderground v.1.15,2013-04-22 06:49:00,
2013-04-22 01:51:00,51.4,49.7,30.07,SSE,166,6.0,8.0,94,0.10,,,0.18,0,Wunderground v.1.15,2013-04-22 06:51:00,
2013-04-22 01:52:00,51.4,49.7,30.07,South,173,4.0,8.0,94,0.09,,,0.18,0,Wunderground v.1.15,2013-04-22 06:52:00,
2013-04-22 01:53:00,51.4,49.7,30.07,South,178,6.0,8.0,94,0.08,,,0.18,0,Wunderground v.1.15,2013-04-22 06:53:00,
2013-04-22 01:58:00,51.4,49.4,30.07,SSE,165,6.0,8.0,93,0.05,,,0.18,0,Wunderground v.1.15,2013-04-22 06:58:00,
2013-04-22 01:59:00,51.4,49.4,30.07,SSE,152,7.0,8.0,93,0.04,,,0.18,0,Wunderground v.1.15,2013-04-22 06:59:00,
2013-04-22 02:02:00,51.4,49.4,30.07,SSE,167,9.0,9.0,93,0.04,,,0.18,0,Wunderground v.1.15,2013-04-22 07:02:00,
2013-04-22 02:03:00,51.3,49.3,30.07,South,171,10.0,10.0,93,0.00,,,0.18,0,Wunderground v.1.15,2013-04-22 07:03:00,
2013-04-22 02:04:00,51.4,49.4,30.07,South,171,5.0,10.0,93,0.00,,,0.18,0,Wunderground v.1.15,2013-04-22 07:04:00,
2013-04-22 02:05:00,51.4,49.4,30.07,SSE,155,5.0,10.0,93,0.00,,,0.18,0,Wunderground v.1.15,2013-04-22 07:05:00,
2013-04-22 02:07:00,51.4,49.4,30.07,SSE,167,6.0,10.0,93,0.00,,,0.18,0,Wunderground v.1.15,2013-04-22 07:07:00,
2013-04-22 02:08:00,51.4,49.4,30.07,South,169,6.0,10.0,93,0.00,,,0.18,0,Wunderground v.1.15,2013-04-22 07:08:00,
2013-04-22 02:09:00,51.3,49.3,30.07,SSE,166,5.0,10.0,93,0.00,,,0.18,0,Wunderground v.1.15,2013-04-22 07:09:00,
2013-04-22 02:13:00,51.3,49.6,30.07,South,170,4.0,7.0,94,0.00,,,0.19,0,Wunderground v.1.15,2013-04-22 07:13:00,
2013-04-22 02:14:00,51.2,49.5,30.07,South,178,5.0,7.0,94,0.00,,,0.19,0,Wunderground v.1.15,2013-04-22 07:14:00,
2013-04-22 02:15:00,51.2,49.5,30.07,South,171,5.0,7.0,94,0.00,,,0.19,0,Wunderground v.1.15,2013-04-22 07:15:00,
2013-04-22 02:19:00,51.2,49.5,30.07,SSE,165,5.0,7.0,94,0.00,,,0.19,0,Wunderground v.1.15,2013-04-22 07:19:00,
2013-04-22 02:20:00,51.2,49.5,30.07,SSE,165,7.0,7.0,94,0.00,,,0.19,0,Wunderground v.1.15,2013-04-22 07:20:00,
2013-04-22 02:21:00,51.2,49.5,30.07,SSE,161,3.0,7.0,94,0.00,,,0.19,0,Wunderground v.1.15,2013-04-22 07:21:00,
2013-04-22 02:24:00,51.1,49.4,30.07,SSE,163,2.0,7.0,94,0.05,,,0.20,0,Wunderground v.1.15,2013-04-22 07:24:00,
2013-04-22 02:25:00,51.1,49.4,30.07,SSE,163,2.0,7.0,94,0.05,,,0.20,0,Wunderground v.1.15,2013-04-22 07:25:00,
2013-04-22 02:26:00,51.1,49.4,30.07,SSE,163,1.0,7.0,94,0.15,,,0.20,0,Wunderground v.1.15,2013-04-22 07:26:00,
2013-04-22 02:27:00,51.1,49.4,30.07,SSE,163,3.0,7.0,94,0.15,,,0.21,0,Wunderground v.1.15,2013-04-22 07:27:00,
2013-04-22 02:30:00,51.0,49.3,30.07,SSE,163,4.0,7.0,94,0.15,,,0.21,0,Wunderground v.1.15,2013-04-22 07:30:00,
2013-04-22 02:31:00,51.0,49.3,30.07,SSE,154,6.0,6.0,94,0.12,,,0.21,0,Wunderground v.1.15,2013-04-22 07:31:00,
2013-04-22 02:32:00,51.0,49.3,30.07,SSE,156,3.0,6.0,94,0.10,,,0.21,0,Wunderground v.1.15,2013-04-22 07:32:00,
2013-04-22 02:33:00,51.0,49.3,30.07,SSE,156,3.0,6.0,94,0.09,,,0.21,0,Wunderground v.1.15,2013-04-22 07:33:00,
2013-04-22 02:35:00,51.0,49.3,30.06,SSE,150,4.0,6.0,94,0.07,,,0.21,0,Wunderground v.1.15,2013-04-22 07:35:00,
2013-04-22 02:37:00,50.9,49.2,30.06,SE,144,3.0,6.0,94,0.06,,,0.21,0,Wunderground v.1.15,2013-04-22 07:37:00,
2013-04-22 02:38:00,50.9,49.2,30.06,SE,139,5.0,6.0,94,0.05,,,0.21,0,Wunderground v.1.15,2013-04-22 07:38:00,
2013-04-22 02:41:00,50.8,49.1,30.06,SE,140,3.0,4.0,94,0.04,,,0.21,0,Wunderground v.1.15,2013-04-22 07:41:00,
2013-04-22 02:42:00,50.8,49.4,30.06,SE,141,4.0,4.0,95,0.04,,,0.21,0,Wunderground v.1.15,2013-04-22 07:42:00,
2013-04-22 02:43:00,50.8,49.4,30.05,SE,140,4.0,4.0,95,0.04,,,0.21,0,Wunderground v.1.15,2013-04-22 07:43:00,
2013-04-22 02:46:00,50.8,49.4,30.05,SE,136,5.0,5.0,95,0.00,,,0.21,0,Wunderground v.1.15,2013-04-22 07:46:00,
2013-04-22 02:47:00,50.8,49.4,30.05,SE,133,4.0,5.0,95,0.00,,,0.21,0,Wunderground v.1.15,2013-04-22 07:47:00,
2013-04-22 02:49:00,50.9,49.5,30.05,SE,128,4.0,6.0,95,0.00,,,0.21,0,Wunderground v.1.15,2013-04-22 07:49:00,
2013-04-22 02:50:00,50.9,49.5,30.05,SE,128,4.0,6.0,95,0.00,,,0.21,0,Wunderground v.1.15,2013-04-22 07:50:00,
2013-04-22 02:52:00,50.9,49.5,30.05,SE,127,5.0,6.0,95,0.00,,,0.21,0,Wunderground v.1.15,2013-04-22 07:52:00,
2013-04-22 02:53:00,50.9,49.5,30.05,SE,125,4.0,6.0,95,0.00,,,0.21,0,Wunderground v.1.15,2013-04-22 07:53:00,
2013-04-22 02:55:00,50.9,49.5,30.05,SE,125,5.0,6.0,95,0.00,,,0.21,0,Wunderground v.1.15,2013-04-22 07:55:00,
2013-04-22 02:56:00,50.9,49.5,30.05,SE,124,3.0,6.0,95,0.00,,,0.21,0,Wunderground v.1.15,2013-04-22 07:56:00,
2013-04-22 02:58:00,50.9,49.5,30.05,SE,128,4.0,6.0,95,0.00,,,0.21,0,Wunderground v.1.15,2013-04-22 07:58:00,
2013-04-22 02:59:00,50.9,49.5,30.05,SE,127,3.0,6.0,95,0.00,,,0.21,0,Wunderground v.1.15,2013-04-22 07:59:00,
2013-04-22 03:00:00,50.9,49.5,30.05,SE,126,4.0,4.0,95,0.00,,,0.21,0,Wunderground v.1.15,2013-04-22 08:00:00,
2013-04-22 03:02:00,50.9,49.5,30.05,SE,126,1.0,4.0,95,0.00,,,0.21,0,Wunderground v.1.15,2013-04-22 08:02:00,
2013-04-22 03:04:00,50.9,49.5,30.05,SE,126,3.0,4.0,95,0.00,,,0.21,0,Wunderground v.1.15,2013-04-22 08:04:00,
2013-04-22 03:05:00,50.9,49.5,30.05,SE,126,3.0,4.0,95,0.00,,,0.21,0,Wunderground v.1.15,2013-04-22 08:05:00,
2013-04-22 03:09:00,50.8,49.4,30.05,SE,126,1.0,4.0,95,0.00,,,0.21,0,Wunderground v.1.15,2013-04-22 08:09:00,
2013-04-22 03:10:00,50.7,49.3,30.04,SE,126,2.0,2.0,95,0.00,,,0.21,0,Wunderground v.1.15,2013-04-22 08:10:00,
2013-04-22 03:11:00,50.7,49.3,30.04,SE,126,1.0,2.0,95,0.00,,,0.21,0,Wunderground v.1.15,2013-04-22 08:11:00,
2013-04-22 03:15:00,50.6,49.2,30.04,SE,130,0.0,4.0,95,0.00,,,0.21,0,Wunderground v.1.15,2013-04-22 08:15:00,
2013-04-22 03:16:00,50.6,49.2,30.05,SE,130,0.0,4.0,95,0.00,,,0.21,0,Wunderground v.1.15,2013-04-22 08:16:00,
2013-04-22 03:17:00,50.6,49.2,30.05,SE,130,0.0,4.0,95,0.00,,,0.21,0,Wunderground v.1.15,2013-04-22 08:17:00,
2013-04-22 03:21:00,50.3,48.9,30.05,SE,130,1.0,3.0,95,0.00,,,0.21,0,Wunderground v.1.15,2013-04-22 08:21:00,
2013-04-22 03:22:00,50.3,48.9,30.05,SE,130,0.0,3.0,95,0.00,,,0.21,0,Wunderground v.1.15,2013-04-22 08:22:00,
2013-04-22 03:26:00,50.0,48.6,30.04,SE,138,2.0,3.0,95,0.00,,,0.21,0,Wunderground v.1.15,2013-04-22 08:26:00,
2013-04-22 03:27:00,50.1,48.7,30.04,SE,138,3.0,3.0,95,0.00,,,0.21,0,Wunderground v.1.15,2013-04-22 08:27:00,
2013-04-22 03:28:00,50.0,48.6,30.04,SE,139,2.0,3.0,95,0.00,,,0.21,0,Wunderground v.1.15,2013-04-22 08:28:00,
2013-04-22 03:30:00,49.9,48.5,30.04,SE,139,2.0,3.0,95,0.00,,,0.21,0,Wunderground v.1.15,2013-04-22 08:30:00,
2013-04-22 03:32:00,49.9,48.5,30.04,SSE,152,3.0,4.0,95,0.00,,,0.21,0,Wunderground v.1.15,2013-04-22 08:32:00,
2013-04-22 03:33:00,49.8,48.4,30.04,SSE,152,3.0,4.0,95,0.00,,,0.21,0,Wunderground v.1.15,2013-04-22 08:33:00,
2013-04-22 03:34:00,49.8,48.4,30.04,SSE,152,3.0,4.0,95,0.00,,,0.21,0,Wunderground v.1.15,2013-04-22 08:34:00,
2013-04-22 03:35:00,49.7,48.3,30.04,SSE,152,3.0,4.0,95,0.00,,,0.21,0,Wunderground v.1.15,2013-04-22 08:35:00,
2013-04-22 03:38:00,49.6,48.2,30.04,SSE,152,2.0,4.0,95,0.00,,,0.21,0,Wunderground v.1.15,2013-04-22 08:38:00,
2013-04-22 03:39:00,49.5,48.1,30.04,SSE,151,3.0,4.0,95,0.00,,,0.21,0,Wunderground v.1.15,2013-04-22 08:39:00,
2013-04-22 03:40:00,49.5,48.1,30.04,SE,146,3.0,3.0,95,0.00,,,0.21,0,Wunderground v.1.15,2013-04-22 08:40:00,
2013-04-22 03:42:00,49.4,48.0,30.04,SE,146,3.0,3.0,95,0.00,,,0.21,0,Wunderground v.1.15,2013-04-22 08:42:00,
2013-04-22 03:44:00,49.4,48.0,30.04,SE,140,3.0,3.0,95,0.00,,,0.21,0,Wunderground v.1.15,2013-04-22 08:44:00,
2013-04-22 03:45:00,49.3,47.9,30.04,SE,146,2.0,5.0,95,0.00,,,0.21,0,Wunderground v.1.15,2013-04-22 08:45:00,
2013-04-22 03:47:00,49.3,48.2,30.04,SE,139,2.0,5.0,96,0.00,,,0.21,0,Wunderground v.1.15,2013-04-22 08:47:00,
2013-04-22 03:49:00,49.3,48.2,30.04,SE,132,5.0,6.0,96,0.00,,,0.21,0,Wunderground v.1.15,2013-04-22 08:49:00,
2013-04-22 03:50:00,49.3,48.2,30.04,SE,131,5.0,5.0,96,0.00,,,0.21,0,Wunderground v.1.15,2013-04-22 08:50:00,
2013-04-22 03:51:00,49.3,48.2,30.04,SE,130,4.0,5.0,96,0.00,,,0.21,0,Wunderground v.1.15,2013-04-22 08:51:00,
2013-04-22 03:54:00,49.4,48.3,30.04,SE,136,5.0,7.0,96,0.00,,,0.21,0,Wunderground v.1.15,2013-04-22 08:54:00,
2013-04-22 03:55:00,49.5,48.4,30.04,SE,133,5.0,7.0,96,0.00,,,0.21,0,Wunderground v.1.15,2013-04-22 08:55:00,
2013-04-22 03:56:00,49.5,48.4,30.04,SE,140,4.0,7.0,96,0.00,,,0.21,0,Wunderground v.1.15,2013-04-22 08:56:00,
2013-04-22 03:57:00,49.5,48.4,30.04,SE,140,4.0,7.0,96,0.00,,,0.21,0,Wunderground v.1.15,2013-04-22 08:57:00,
2013-04-22 04:00:00,49.6,48.5,30.03,SE,134,5.0,5.0,96,0.00,,,0.21,0,Wunderground v.1.15,2013-04-22 09:00:00,
2013-04-22 04:02:00,49.6,48.5,30.03,SE,136,6.0,7.0,96,0.00,,,0.21,0,Wunderground v.1.15,2013-04-22 09:02:00,
2013-04-22 04:03:00,49.6,48.5,30.03,SE,136,6.0,7.0,96,0.00,,,0.21,0,Wunderground v.1.15,2013-04-22 09:03:00,
2013-04-22 04:04:00,49.7,48.6,30.03,SE,133,5.0,7.0,96,0.00,,,0.21,0,Wunderground v.1.15,2013-04-22 09:04:00,
2013-04-22 04:07:00,49.7,48.6,30.03,SE,135,5.0,8.0,96,0.00,,,0.21,0,Wunderground v.1.15,2013-04-22 09:07:00,
2013-04-22 04:08:00,49.7,48.6,30.03,SE,137,5.0,8.0,96,0.00,,,0.21,0,Wunderground v.1.15,2013-04-22 09:08:00,
2013-04-22 04:09:00,49.7,48.6,30.03,SE,137,4.0,8.0,96,0.00,,,0.21,0,Wunderground v.1.15,2013-04-22 09:09:00,
2013-04-22 04:11:00,49.7,48.6,30.03,SE,134,6.0,6.0,96,0.00,,,0.21,0,Wunderground v.1.15,2013-04-22 09:11:00,
2013-04-22 04:13:00,49.7,48.6,30.03,SE,135,6.0,6.0,96,0.00,,,0.21,0,Wunderground v.1.15,2013-04-22 09:13:00,
2013-04-22 04:16:00,49.8,48.7,30.03,SE,136,5.0,6.0,96,0.00,,,0.21,0,Wunderground v.1.15,2013-04-22 09:16:00,
2013-04-22 04:17:00,49.8,48.7,30.03,SE,138,6.0,6.0,96,0.00,,,0.21,0,Wunderground v.1.15,2013-04-22 09:17:00,
2013-04-22 04:18:00,49.8,48.7,30.03,SE,135,5.0,6.0,96,0.00,,,0.21,0,Wunderground v.1.15,2013-04-22 09:18:00,
2013-04-22 04:19:00,49.9,48.8,30.03,SE,140,6.0,6.0,96,0.00,,,0.21,0,Wunderground v.1.15,2013-04-22 09:19:00,
2013-04-22 04:23:00,49.9,48.8,30.03,SE,140,4.0,7.0,96,0.00,,,0.21,0,Wunderground v.1.15,2013-04-22 09:23:00,
2013-04-22 04:24:00,49.9,48.8,30.03,SE,136,6.0,7.0,96,0.00,,,0.21,0,Wunderground v.1.15,2013-04-22 09:24:00,
2013-04-22 04:25:00,50.0,48.9,30.03,SE,139,6.0,7.0,96,0.00,,,0.21,0,Wunderground v.1.15,2013-04-22 09:25:00,
2013-04-22 04:27:00,49.9,48.8,30.03,SE,139,4.0,7.0,96,0.00,,,0.21,0,Wunderground v.1.15,2013-04-22 09:27:00,
2013-04-22 04:28:00,49.9,48.8,30.03,SE,139,5.0,7.0,96,0.00,,,0.21,0,Wunderground v.1.15,2013-04-22 09:28:00,
2013-04-22 04:29:00,49.9,48.8,30.03,SE,139,4.0,7.0,96,0.00,,,0.21,0,Wunderground v.1.15,2013-04-22 09:29:00,
2013-04-22 04:30:00,49.9,48.8,30.03,SE,139,4.0,7.0,96,0.00,,,0.21,0,Wunderground v.1.15,2013-04-22 09:30:00,
2013-04-22 04:32:00,49.9,48.8,30.03,SE,140,2.0,5.0,96,0.00,,,0.21,0,Wunderground v.1.15,2013-04-22 09:32:00,
2013-04-22 04:34:00,49.9,48.8,30.04,SE,140,4.0,5.0,96,0.00,,,0.21,0,Wunderground v.1.15,2013-04-22 09:34:00,
2013-04-22 04:35:00,49.9,48.8,30.03,SE,140,5.0,5.0,96,0.00,,,0.21,0,Wunderground v.1.15,2013-04-22 09:35:00,
2013-04-22 04:37:00,49.9,48.8,30.03,SE,140,5.0,5.0,96,0.00,,,0.21,0,Wunderground v.1.15,2013-04-22 09:37:00,
2013-04-22 04:38:00,49.9,48.8,30.03,SE,143,5.0,5.0,96,0.00,,,0.21,0,Wunderground v.1.15,2013-04-22 09:38:00,
2013-04-22 04:41:00,49.9,48.8,30.04,SSE,149,6.0,6.0,96,0.00,,,0.21,0,Wunderground v.1.15,2013-04-22 09:41:00,
2013-04-22 04:42:00,49.8,48.7,30.04,SE,142,6.0,6.0,96,0.00,,,0.21,0,Wunderground v.1.15,2013-04-22 09:42:00,
2013-04-22 04:43:00,49.8,48.7,30.04,SE,143,5.0,6.0,96,0.00,,,0.21,0,Wunderground v.1.15,2013-04-22 09:43:00,
2013-04-22 04:46:00,49.8,48.7,30.03,SSE,148,4.0,6.0,96,0.00,,,0.21,0,Wunderground v.1.15,2013-04-22 09:46:00,
2013-04-22 04:47:00,49.8,48.7,30.03,SE,144,4.0,6.0,96,0.00,,,0.21,0,Wunderground v.1.15,2013-04-22 09:47:00,
2013-04-22 04:49:00,49.8,48.7,30.03,SE,143,3.0,6.0,96,0.00,,,0.21,0,Wunderground v.1.15,2013-04-22 09:49:00,
2013-04-22 04:51:00,49.8,48.7,30.03,SE,140,4.0,5.0,96,0.00,,,0.21,0,Wunderground v.1.15,2013-04-22 09:51:00,
2013-04-22 04:52:00,49.8,48.7,30.03,SE,144,5.0,5.0,96,0.00,,,0.21,0,Wunderground v.1.15,2013-04-22 09:52:00,
2013-04-22 04:53:00,49.8,48.7,30.03,SSE,148,4.0,5.0,96,0.00,,,0.21,0,Wunderground v.1.15,2013-04-22 09:53:00,
2013-04-22 04:54:00,49.8,48.7,30.03,SE,146,4.0,5.0,96,0.00,,,0.21,0,Wunderground v.1.15,2013-04-22 09:54:00,
2013-04-22 04:56:00,49.8,48.7,30.03,SE,143,4.0,5.0,96,0.00,,,0.21,0,Wunderground v.1.15,2013-04-22 09:56:00,
2013-04-22 04:57:00,49.8,48.7,30.03,SE,139,5.0,6.0,96,0.00,,,0.21,0,Wunderground v.1.15,2013-04-22 09:57:00,
2013-04-22 04:58:00,49.9,48.8,30.03,SE,139,4.0,6.0,96,0.00,,,0.21,0,Wunderground v.1.15,2013-04-22 09:58:00,
2013-04-22 05:00:00,49.9,48.8,30.03,SE,138,5.0,6.0,96,0.00,,,0.21,0,Wunderground v.1.15,2013-04-22 10:00:00,
2013-04-22 05:02:00,50.0,48.9,30.03,SE,139,4.0,5.0,96,0.00,,,0.21,0,Wunderground v.1.15,2013-04-22 10:02:00,
2013-04-22 05:03:00,50.0,48.9,30.03,SE,140,4.0,5.0,96,0.00,,,0.21,0,Wunderground v.1.15,2013-04-22 10:03:00,
2013-04-22 05:05:00,50.0,48.9,30.03,SE,136,5.0,6.0,96,0.00,,,0.21,0,Wunderground v.1.15,2013-04-22 10:05:00,
2013-04-22 05:07:00,50.1,49.0,30.03,SE,134,7.0,7.0,96,0.00,,,0.21,0,Wunderground v.1.15,2013-04-22 10:07:00,
2013-04-22 05:08:00,50.2,49.1,30.03,SE,140,6.0,7.0,96,0.00,,,0.21,0,Wunderground v.1.15,2013-04-22 10:08:00,
2013-04-22 05:09:00,50.2,49.1,30.03,SE,133,5.0,7.0,96,0.00,,,0.21,0,Wunderground v.1.15,2013-04-22 10:09:00,
2013-04-22 05:11:00,50.3,49.2,30.03,SE,145,6.0,7.0,96,0.00,,,0.21,0,Wunderground v.1.15,2013-04-22 10:11:00,
2013-04-22 05:13:00,50.3,49.2,30.03,SE,143,5.0,7.0,96,0.00,,,0.21,0,Wunderground v.1.15,2013-04-22 10:13:00,
2013-04-22 05:14:00,50.3,49.2,30.03,SE,143,6.0,7.0,96,0.00,,,0.21,0,Wunderground v.1.15,2013-04-22 10:14:00,
2013-04-22 05:16:00,50.4,49.3,30.03,SE,145,4.0,8.0,96,0.00,,,0.21,0,Wunderground v.1.15,2013-04-22 10:16:00,
2013-04-22 05:19:00,50.3,48.9,30.03,SE,145,5.0,8.0,95,0.00,,,0.21,0,Wunderground v.1.15,2013-04-22 10:19:00,
2013-04-22 05:21:00,50.3,48.9,30.03,SE,145,5.0,7.0,95,0.00,,,0.21,0,Wunderground v.1.15,2013-04-22 10:21:00,
2013-04-22 05:24:00,50.2,48.8,30.03,SE,145,5.0,7.0,95,0.00,,,0.21,0,Wunderground v.1.15,2013-04-22 10:24:00,
2013-04-22 05:25:00,50.2,48.8,30.03,SE,143,6.0,7.0,95,0.00,,,0.21,0,Wunderground v.1.15,2013-04-22 10:25:00,
2013-04-22 05:26:00,50.2,48.8,30.03,SE,133,6.0,7.0,95,0.00,,,0.21,0,Wunderground v.1.15,2013-04-22 10:26:00,
2013-04-22 05:27:00,50.3,48.9,30.03,SE,134,6.0,8.0,95,0.00,,,0.21,0,Wunderground v.1.15,2013-04-22 10:27:00,
2013-04-22 05:30:00,50.3,48.9,30.03,SE,136,4.0,8.0,95,0.00,,,0.21,0,Wunderground v.1.15,2013-04-22 10:30:00,
2013-04-22 05:31:00,50.3,48.9,30.03,SE,133,4.0,8.0,95,0.00,,,0.21,0,Wunderground v.1.15,2013-04-22 10:31:00,
2013-04-22 05:32:00,50.3,48.9,30.03,SE,146,5.0,8.0,95,0.00,,,0.21,0,Wunderground v.1.15,2013-04-22 10:32:00,
2013-04-22 05:33:00,50.3,48.9,30.03,SE,144,5.0,8.0,95,0.00,,,0.21,0,Wunderground v.1.15,2013-04-22 10:33:00,
2013-04-22 05:36:00,50.3,48.9,30.03,SE,146,4.0,8.0,95,0.00,,,0.21,0,Wunderground v.1.15,2013-04-22 10:36:00,
2013-04-22 05:37:00,50.2,48.8,30.03,SE,141,5.0,8.0,95,0.00,,,0.21,0,Wunderground v.1.15,2013-04-22 10:37:00,
2013-04-22 05:38:00,50.2,48.8,30.03,SE,140,5.0,8.0,95,0.00,,,0.21,0,Wunderground v.1.15,2013-04-22 10:38:00,
2013-04-22 05:39:00,50.1,48.7,30.02,SE,138,6.0,8.0,95,0.00,,,0.21,0,Wunderground v.1.15,2013-04-22 10:39:00,
2013-04-22 05:42:00,50.2,48.8,30.02,SE,142,5.0,6.0,95,0.00,,,0.21,0,Wunderground v.1.15,2013-04-22 10:42:00,
2013-04-22 05:43:00,50.2,48.8,30.02,SE,141,6.0,6.0,95,0.00,,,0.21,0,Wunderground v.1.15,2013-04-22 10:43:00,
2013-04-22 05:44:00,50.2,48.8,30.02,SE,143,3.0,7.0,95,0.00,,,0.21,0,Wunderground v.1.15,2013-04-22 10:44:00,
2013-04-22 05:45:00,50.2,48.8,30.02,SE,141,5.0,7.0,95,0.00,,,0.21,0,Wunderground v.1.15,2013-04-22 10:45:00,
2013-04-22 05:47:00,50.2,48.8,30.02,SE,134,4.0,7.0,95,0.00,,,0.21,0,Wunderground v.1.15,2013-04-22 10:47:00,
2013-04-22 05:48:00,50.3,48.9,30.02,SE,130,3.0,7.0,95,0.00,,,0.21,0,Wunderground v.1.15,2013-04-22 10:48:00,
2013-04-22 05:49:00,50.2,48.8,30.02,SE,142,6.0,7.0,95,0.00,,,0.21,0,Wunderground v.1.15,2013-04-22 10:49:00,
2013-04-22 05:52:00,50.2,48.8,30.01,ESE,113,8.0,9.0,95,0.00,,,0.21,0,Wunderground v.1.15,2013-04-22 10:52:00,
2013-04-22 05:53:00,50.3,48.9,30.01,SE,126,6.0,9.0,95,0.00,,,0.21,0,Wunderground v.1.15,2013-04-22 10:53:00,
2013-04-22 05:54:00,50.2,48.8,30.01,ESE,121,7.0,9.0,95,0.00,,,0.21,0,Wunderground v.1.15,2013-04-22 10:54:00,
2013-04-22 05:59:00,50.2,48.8,30.01,SE,127,7.0,9.0,95,0.00,,,0.21,0,Wunderground v.1.15,2013-04-22 10:59:00,
2013-04-22 06:00:00,50.2,48.8,30.01,SE,128,9.0,9.0,95,0.00,,,0.21,0,Wunderground v.1.15,2013-04-22 11:00:00,
2013-04-22 06:01:00,50.2,48.8,30.01,ESE,119,9.0,9.0,95,0.00,,,0.21,0,Wunderground v.1.15,2013-04-22 11:01:00,
2013-04-22 06:04:00,50.2,48.8,30.01,ESE,123,8.0,10.0,95,0.00,,,0.21,0,Wunderground v.1.15,2013-04-22 11:04:00,
2013-04-22 06:05:00,50.1,48.7,30.01,ESE,118,9.0,10.0,95,0.00,,,0.21,0,Wunderground v.1.15,2013-04-22 11:05:00,
2013-04-22 06:06:00,50.1,48.7,30.01,ESE,113,7.0,10.0,95,0.00,,,0.21,0,Wunderground v.1.15,2013-04-22 11:06:00,
2013-04-22 06:07:00,50.1,48.7,30.01,SE,134,5.0,10.0,95,0.00,,,0.21,0,Wunderground v.1.15,2013-04-22 11:07:00,
2013-04-22 06:10:00,50.1,48.7,30.01,ESE,112,4.0,10.0,95,0.00,,,0.21,0,Wunderground v.1.15,2013-04-22 11:10:00,
2013-04-22 06:11:00,50.0,48.6,30.01,East,95,3.0,7.0,95,0.00,,,0.21,0,Wunderground v.1.15,2013-04-22 11:11:00,
2013-04-22 06:13:00,50.0,48.6,30.01,ESE,104,3.0,7.0,95,0.00,,,0.21,0,Wunderground v.1.15,2013-04-22 11:13:00,
2013-04-22 06:16:00,49.9,48.5,30.01,ESE,117,3.0,8.0,95,0.00,,,0.21,0,Wunderground v.1.15,2013-04-22 11:16:00,
2013-04-22 06:17:00,49.9,48.5,30.01,ESE,117,3.0,8.0,95,0.00,,,0.21,0,Wunderground v.1.15,2013-04-22 11:17:00,
2013-04-22 06:18:00,49.9,48.5,30.01,ESE,117,3.0,8.0,95,0.00,,,0.21,0,Wunderground v.1.15,2013-04-22 11:18:00,
2013-04-22 06:20:00,49.8,48.4,30.01,ESE,112,5.0,5.0,95,0.00,,,0.21,0,Wunderground v.1.15,2013-04-22 11:20:00,
2013-04-22 06:22:00,49.8,48.4,30.01,ESE,111,3.0,5.0,95,0.00,,,0.21,0,Wunderground v.1.15,2013-04-22 11:22:00,
2013-04-22 06:23:00,49.8,48.4,30.01,ESE,107,4.0,5.0,95,0.00,,,0.21,0,Wunderground v.1.15,2013-04-22 11:23:00,
2013-04-22 06:24:00,49.8,48.4,30.01,ESE,103,4.0,5.0,95,0.00,,,0.21,0,Wunderground v.1.15,2013-04-22 11:24:00,
2013-04-22 06:27:00,49.8,48.4,30.01,East,98,2.0,7.0,95,0.00,,,0.21,0,Wunderground v.1.15,2013-04-22 11:27:00,
2013-04-22 06:28:00,49.7,48.3,30.01,East,98,1.0,7.0,95,0.00,,,0.21,0,Wunderground v.1.15,2013-04-22 11:28:00,
2013-04-22 06:29:00,49.8,48.4,30.01,East,98,3.0,7.0,95,0.00,,,0.21,0,Wunderground v.1.15,2013-04-22 11:29:00,
2013-04-22 06:33:00,49.7,48.3,30.02,East,98,5.0,5.0,95,0.00,,,0.21,0,Wunderground v.1.15,2013-04-22 11:33:00,
2013-04-22 06:34:00,49.6,48.2,30.02,East,98,3.0,5.0,95,0.00,,,0.21,5,Wunderground v.1.15,2013-04-22 11:34:00,
2013-04-22 06:38:00,49.5,48.1,30.02,East,98,5.0,6.0,95,0.00,,,0.21,7,Wunderground v.1.15,2013-04-22 11:38:00,
2013-04-22 06:39:00,49.5,48.1,30.02,East,99,2.0,6.0,95,0.00,,,0.21,11,Wunderground v.1.15,2013-04-22 11:39:00,
2013-04-22 06:40:00,49.5,48.1,30.01,ESE,105,4.0,4.0,95,0.00,,,0.21,11,Wunderground v.1.15,2013-04-22 11:40:00,
2013-04-22 06:41:00,49.5,48.1,30.02,ESE,112,5.0,5.0,95,0.00,,,0.21,11,Wunderground v.1.15,2013-04-22 11:41:00,
2013-04-22 06:44:00,49.5,48.1,30.02,ESE,107,4.0,5.0,95,0.00,,,0.21,19,Wunderground v.1.15,2013-04-22 11:44:00,
2013-04-22 06:45:00,49.4,48.0,30.02,ESE,106,5.0,8.0,95,0.00,,,0.21,21,Wunderground v.1.15,2013-04-22 11:45:00,
2013-04-22 06:47:00,49.5,48.1,30.02,SE,127,6.0,8.0,95,0.00,,,0.21,26,Wunderground v.1.15,2013-04-22 11:47:00,
2013-04-22 06:48:00,49.5,48.1,30.02,ESE,117,4.0,8.0,95,0.00,,,0.21,30,Wunderground v.1.15,2013-04-22 11:48:00,
2013-04-22 06:49:00,49.5,48.1,30.02,East,93,5.0,8.0,95,0.00,,,0.21,30,Wunderground v.1.15,2013-04-22 11:49:00,
2013-04-22 06:50:00,49.5,48.1,30.02,SE,125,5.0,6.0,95,0.00,,,0.21,32,Wunderground v.1.15,2013-04-22 11:50:00,
2013-04-22 06:52:00,49.4,48.0,30.02,ESE,113,5.0,6.0,95,0.00,,,0.21,35,Wunderground v.1.15,2013-04-22 11:52:00,
2013-04-22 06:53:00,49.5,48.1,30.02,ESE,117,7.0,7.0,95,0.00,,,0.21,35,Wunderground v.1.15,2013-04-22 11:53:00,
2013-04-22 06:54:00,49.5,48.1,30.02,ESE,118,7.0,7.0,95,0.00,,,0.21,35,Wunderground v.1.15,2013-04-22 11:54:00,
2013-04-22 06:55:00,49.5,48.1,30.02,SE,129,5.0,7.0,95,0.00,,,0.21,40,Wunderground v.1.15,2013-04-22 11:55:00,
2013-04-22 06:57:00,49.5,48.1,30.02,ESE,115,4.0,7.0,95,0.00,,,0.21,44,Wunderground v.1.15,2013-04-22 11:57:00,
2013-04-22 06:58:00,49.5,48.1,30.02,ESE,117,4.0,7.0,95,0.00,,,0.21,46,Wunderground v.1.15,2013-04-22 11:58:00,
2013-04-22 07:00:00,49.5,48.4,30.02,ESE,120,4.0,5.0,96,0.00,,,0.21,46,Wunderground v.1.15,2013-04-22 12:00:00,
2013-04-22 07:01:00,49.5,48.4,30.02,ESE,123,7.0,7.0,96,0.00,,,0.21,46,Wunderground v.1.15,2013-04-22 12:01:00,
2013-04-22 07:03:00,49.6,48.2,30.01,ESE,116,4.0,9.0,95,0.00,,,0.21,47,Wunderground v.1.15,2013-04-22 12:03:00,
2013-04-22 07:05:00,49.6,48.2,30.01,ESE,111,4.0,9.0,95,0.00,,,0.21,47,Wunderground v.1.15,2013-04-22 12:05:00,
2013-04-22 07:07:00,49.6,48.2,30.01,ESE,116,3.0,9.0,95,0.00,,,0.21,47,Wunderground v.1.15,2013-04-22 12:07:00,
2013-04-22 07:08:00,49.6,48.2,30.01,ESE,108,4.0,9.0,95,0.00,,,0.21,47,Wunderground v.1.15,2013-04-22 12:08:00,
2013-04-22 07:10:00,49.6,48.2,30.01,ESE,114,3.0,9.0,95,0.00,,,0.21,47,Wunderground v.1.15,2013-04-22 12:10:00,
2013-04-22 07:11:00,49.6,48.2,30.01,East,99,5.0,5.0,95,0.00,,,0.21,47,Wunderground v.1.15,2013-04-22 12:11:00,
2013-04-22 07:12:00,49.6,48.2,30.01,ESE,110,3.0,5.0,95,0.00,,,0.21,49,Wunderground v.1.15,2013-04-22 12:12:00,
2013-04-22 07:13:00,49.6,48.2,30.01,ESE,105,4.0,6.0,95,0.00,,,0.21,49,Wunderground v.1.15,2013-04-22 12:13:00,
2013-04-22 07:15:00,49.6,48.2,30.01,ESE,106,3.0,6.0,95,0.00,,,0.21,49,Wunderground v.1.15,2013-04-22 12:15:00,
2013-04-22 07:17:00,49.6,48.2,30.01,ESE,105,2.0,6.0,95,0.00,,,0.21,54,Wunderground v.1.15,2013-04-22 12:17:00,
2013-04-22 07:18:00,49.6,48.2,30.01,ESE,117,5.0,6.0,95,0.00,,,0.21,56,Wunderground v.1.15,2013-04-22 12:18:00,
2013-04-22 07:20:00,49.7,48.3,30.01,ESE,107,4.0,4.0,95,0.00,,,0.21,62,Wunderground v.1.15,2013-04-22 12:20:00,
2013-04-22 07:22:00,49.7,48.3,30.01,ESE,114,2.0,4.0,95,0.00,,,0.21,67,Wunderground v.1.15,2013-04-22 12:22:00,
2013-04-22 07:23:00,49.8,48.4,30.01,ESE,116,4.0,4.0,95,0.00,,,0.21,69,Wunderground v.1.15,2013-04-22 12:23:00,
2013-04-22 07:25:00,49.9,48.5,30.02,ESE,115,4.0,4.0,95,0.00,,,0.21,69,Wunderground v.1.15,2013-04-22 12:25:00,
2013-04-22 07:27:00,50.0,48.6,30.02,ESE,122,2.0,4.0,95,0.00,,,0.21,65,Wunderground v.1.15,2013-04-22 12:27:00,
2013-04-22 07:28:00,50.0,48.6,30.02,ESE,122,2.0,4.0,95,0.00,,,0.21,63,Wunderground v.1.15,2013-04-22 12:28:00,
2013-04-22 07:29:00,50.0,48.6,30.02,SE,126,3.0,4.0,95,0.00,,,0.21,62,Wunderground v.1.15,2013-04-22 12:29:00,
2013-04-22 07:30:00,50.1,48.7,30.02,SE,126,2.0,3.0,95,0.00,,,0.21,58,Wunderground v.1.15,2013-04-22 12:30:00,
2013-04-22 07:31:00,50.1,48.7,30.02,ESE,119,3.0,3.0,95,0.00,,,0.21,58,Wunderground v.1.15,2013-04-22 12:31:00,
2013-04-22 07:32:00,50.1,48.7,30.02,ESE,123,3.0,4.0,95,0.00,,,0.21,56,Wunderground v.1.15,2013-04-22 12:32:00,
2013-04-22 07:33:00,50.1,48.7,30.02,ESE,123,0.0,4.0,95,0.00,,,0.21,56,Wunderground v.1.15,2013-04-22 12:33:00,
2013-04-22 07:35:00,50.2,48.8,30.02,ESE,123,0.0,4.0,95,0.00,,,0.21,58,Wunderground v.1.15,2013-04-22 12:35:00,
2013-04-22 07:37:00,50.3,48.9,30.02,ESE,123,0.0,4.0,95,0.00,,,0.21,60,Wunderground v.1.15,2013-04-22 12:37:00,
2013-04-22 07:38:00,50.2,48.5,30.02,ESE,123,0.0,4.0,94,0.00,,,0.21,60,Wunderground v.1.15,2013-04-22 12:38:00,
2013-04-22 07:40:00,50.3,48.6,30.02,ESE,116,5.0,5.0,94,0.00,,,0.21,60,Wunderground v.1.15,2013-04-22 12:40:00,
2013-04-22 07:41:00,50.3,48.6,30.02,SE,124,3.0,5.0,94,0.00,,,0.21,60,Wunderground v.1.15,2013-04-22 12:41:00,
2013-04-22 07:42:00,50.3,48.6,30.02,ESE,114,3.0,5.0,94,0.00,,,0.21,58,Wunderground v.1.15,2013-04-22 12:42:00,
2013-04-22 07:43:00,50.3,48.6,30.02,ESE,112,7.0,7.0,94,0.00,,,0.21,58,Wunderground v.1.15,2013-04-22 12:43:00,
2013-04-22 07:46:00,50.3,48.6,30.01,ESE,113,1.0,7.0,94,0.00,,,0.21,58,Wunderground v.1.15,2013-04-22 12:46:00,
2013-04-22 07:47:00,50.3,48.6,30.01,ESE,103,3.0,7.0,94,0.00,,,0.21,60,Wunderground v.1.15,2013-04-22 12:47:00,
2013-04-22 07:49:00,50.3,48.6,30.01,ESE,103,0.0,7.0,94,0.00,,,0.21,65,Wunderground v.1.15,2013-04-22 12:49:00,
2013-04-22 07:51:00,50.3,48.6,30.01,ESE,103,0.0,2.0,94,0.00,,,0.21,65,Wunderground v.1.15,2013-04-22 12:51:00,
2013-04-22 07:52:00,50.2,48.5,30.01,ESE,103,0.0,2.0,94,0.00,,,0.21,65,Wunderground v.1.15,2013-04-22 12:52:00,
2013-04-22 07:53:00,50.3,48.6,30.01,ESE,103,1.0,3.0,94,0.00,,,0.21,67,Wunderground v.1.15,2013-04-22 12:53:00,
2013-04-22 07:54:00,50.2,48.5,30.01,ESE,103,0.0,3.0,94,0.00,,,0.21,72,Wunderground v.1.15,2013-04-22 12:54:00,
2013-04-22 07:57:00,50.3,48.6,30.01,ESE,103,0.0,3.0,94,0.00,,,0.21,86,Wunderground v.1.15,2013-04-22 12:57:00,
2013-04-22 07:59:00,50.3,48.6,30.01,ESE,103,3.0,3.0,94,0.00,,,0.21,88,Wunderground v.1.15,2013-04-22 12:59:00,
2013-04-22 08:00:00,50.3,48.6,30.01,ESE,105,3.0,4.0,94,0.00,,,0.21,88,Wunderground v.1.15,2013-04-22 13:00:00,
2013-04-22 08:01:00,50.3,48.6,30.01,ESE,105,2.0,2.0,94,0.00,,,0.21,88,Wunderground v.1.15,2013-04-22 13:01:00,
2013-04-22 08:02:00,50.3,48.6,30.01,ESE,105,1.0,2.0,94,0.00,,,0.21,88,Wunderground v.1.15,2013-04-22 13:02:00,
2013-04-22 08:03:00,50.4,48.7,30.01,ESE,105,3.0,3.0,94,0.00,,,0.21,86,Wunderground v.1.15,2013-04-22 13:03:00,
2013-04-22 08:04:00,50.4,48.7,30.01,ESE,105,2.0,3.0,94,0.00,,,0.21,88,Wunderground v.1.15,2013-04-22 13:04:00,
2013-04-22 08:06:00,50.4,48.7,30.02,SE,126,3.0,3.0,94,0.00,,,0.21,91,Wunderground v.1.15,2013-04-22 13:06:00,
2013-04-22 08:07:00,50.4,48.7,30.02,SE,126,0.0,3.0,94,0.00,,,0.21,93,Wunderground v.1.15,2013-04-22 13:07:00,
2013-04-22 08:08:00,50.5,48.8,30.02,SE,127,0.0,3.0,94,0.00,,,0.21,93,Wunderground v.1.15,2013-04-22 13:08:00,
2013-04-22 08:09:00,50.5,48.8,30.02,SE,127,0.0,3.0,94,0.00,,,0.21,97,Wunderground v.1.15,2013-04-22 13:09:00,
2013-04-22 08:10:00,50.6,48.9,30.02,SE,127,0.0,2.0,94,0.00,,,0.21,98,Wunderground v.1.15,2013-04-22 13:10:00,
2013-04-22 08:11:00,50.6,48.9,30.02,SE,127,0.0,2.0,94,0.00,,,0.21,98,Wunderground v.1.15,2013-04-22 13:11:00,
2013-04-22 08:13:00,50.6,48.7,30.02,SE,127,0.0,2.0,93,0.00,,,0.21,98,Wunderground v.1.15,2013-04-22 13:13:00,
2013-04-22 08:16:00,50.8,48.8,30.02,SE,127,0.0,2.0,93,0.00,,,0.21,97,Wunderground v.1.15,2013-04-22 13:16:00,
2013-04-22 08:17:00,50.8,48.8,30.01,SE,127,0.0,2.0,93,0.00,,,0.21,97,Wunderground v.1.15,2013-04-22 13:17:00,
2013-04-22 08:18:00,50.8,48.8,30.02,SE,127,3.0,3.0,93,0.00,,,0.21,86,Wunderground v.1.15,2013-04-22 13:18:00,
2013-04-22 08:21:00,50.9,48.7,30.02,SE,127,1.0,1.0,92,0.00,,,0.21,79,Wunderground v.1.15,2013-04-22 13:21:00,
2013-04-22 08:22:00,50.8,48.6,30.02,SE,127,0.0,1.0,92,0.00,,,0.21,79,Wunderground v.1.15,2013-04-22 13:22:00,
2013-04-22 08:23:00,50.9,48.7,30.02,SE,127,0.0,1.0,92,0.00,,,0.21,77,Wunderground v.1.15,2013-04-22 13:23:00,
2013-04-22 08:27:00,51.0,48.8,30.02,SE,130,0.0,2.0,92,0.00,,,0.21,65,Wunderground v.1.15,2013-04-22 13:27:00,
2013-04-22 08:28:00,51.0,48.8,30.02,SE,130,1.0,2.0,92,0.00,,,0.21,63,Wunderground v.1.15,2013-04-22 13:28:00,
2013-04-22 08:30:00,51.0,48.8,30.02,SE,138,4.0,4.0,92,0.00,,,0.21,60,Wunderground v.1.15,2013-04-22 13:30:00,
2013-04-22 08:32:00,51.0,48.5,30.02,SE,138,2.0,3.0,91,0.00,,,0.21,58,Wunderground v.1.15,2013-04-22 13:32:00,
2013-04-22 08:33:00,51.1,48.6,30.01,SE,138,1.0,3.0,91,0.00,,,0.21,56,Wunderground v.1.15,2013-04-22 13:33:00,
2013-04-22 08:36:00,51.1,48.3,30.01,SE,140,2.0,4.0,90,0.00,,,0.21,53,Wunderground v.1.15,2013-04-22 13:36:00,
2013-04-22 08:38:00,51.2,48.4,30.01,SE,140,3.0,4.0,90,0.00,,,0.21,53,Wunderground v.1.15,2013-04-22 13:38:00,
2013-04-22 08:39:00,51.2,48.4,30.01,SE,130,4.0,4.0,90,0.00,,,0.21,53,Wunderground v.1.15,2013-04-22 13:39:00,
2013-04-22 08:40:00,51.2,48.1,30.01,SE,130,2.0,3.0,89,0.00,,,0.21,53,Wunderground v.1.15,2013-04-22 13:40:00,
2013-04-22 08:41:00,51.2,48.1,30.01,SE,130,0.0,3.0,89,0.00,,,0.21,54,Wunderground v.1.15,2013-04-22 13:41:00,
2013-04-22 08:42:00,51.2,48.4,30.01,SE,130,0.0,3.0,90,0.00,,,0.21,54,Wunderground v.1.15,2013-04-22 13:42:00,
2013-04-22 08:43:00,51.2,48.1,30.01,SE,130,0.0,3.0,89,0.00,,,0.21,56,Wunderground v.1.15,2013-04-22 13:43:00,
2013-04-22 08:45:00,51.2,48.1,30.01,SE,130,0.0,3.0,89,0.00,,,0.21,58,Wunderground v.1.15,2013-04-22 13:45:00,
2013-04-22 08:46:00,51.2,48.4,30.01,SE,130,2.0,3.0,90,0.00,,,0.21,65,Wunderground v.1.15,2013-04-22 13:46:00,
2013-04-22 08:48:00,51.1,48.0,30.01,SE,125,1.0,3.0,89,0.00,,,0.21,74,Wunderground v.1.15,2013-04-22 13:48:00,
2013-04-22 08:50:00,51.2,48.1,30.01,SE,125,2.0,2.0,89,0.00,,,0.21,83,Wunderground v.1.15,2013-04-22 13:50:00,
2013-04-22 08:51:00,51.2,47.8,30.01,SE,125,3.0,3.0,88,0.00,,,0.21,88,Wunderground v.1.15,2013-04-22 13:51:00,
2013-04-22 08:52:00,51.2,47.8,30.01,SE,125,1.0,3.0,88,0.00,,,0.21,97,Wunderground v.1.15,2013-04-22 13:52:00,
2013-04-22 08:53:00,51.2,47.8,30.01,SE,125,1.0,3.0,88,0.00,,,0.21,100,Wunderground v.1.15,2013-04-22 13:53:00,
2013-04-22 08:55:00,51.3,47.9,30.01,SE,125,0.0,3.0,88,0.00,,,0.21,104,Wunderground v.1.15,2013-04-22 13:55:00,
2013-04-22 08:56:00,51.3,47.9,30.00,SE,125,1.0,3.0,88,0.00,,,0.21,107,Wunderground v.1.15,2013-04-22 13:56:00,
2013-04-22 08:57:00,51.3,47.9,30.00,SE,125,3.0,3.0,88,0.00,,,0.21,109,Wunderground v.1.15,2013-04-22 13:57:00,
2013-04-22 08:59:00,51.4,48.0,30.00,SE,125,2.0,3.0,88,0.00,,,0.21,111,Wunderground v.1.15,2013-04-22 13:59:00,
2013-04-22 09:00:00,51.4,48.0,30.00,SE,125,2.0,2.0,88,0.00,,,0.21,116,Wunderground v.1.15,2013-04-22 14:00:00,
2013-04-22 09:02:00,51.4,47.7,30.00,SE,131,2.0,4.0,87,0.00,,,0.21,121,Wunderground v.1.15,2013-04-22 14:02:00,
2013-04-22 09:03:00,51.4,47.7,30.00,SE,125,3.0,4.0,87,0.00,,,0.21,125,Wunderground v.1.15,2013-04-22 14:03:00,
2013-04-22 09:04:00,51.4,47.7,30.00,SE,125,3.0,4.0,87,0.00,,,0.21,128,Wunderground v.1.15,2013-04-22 14:04:00,
2013-04-22 09:08:00,51.5,47.8,30.00,SE,146,4.0,5.0,87,0.00,,,0.21,128,Wunderground v.1.15,2013-04-22 14:08:00,
2013-04-22 09:10:00,51.5,47.5,30.00,SSE,154,3.0,5.0,86,0.00,,,0.21,123,Wunderground v.1.15,2013-04-22 14:10:00,
2013-04-22 09:11:00,51.5,47.8,30.00,SE,140,2.0,4.0,87,0.00,,,0.21,118,Wunderground v.1.15,2013-04-22 14:11:00,
2013-04-22 09:13:00,51.6,48.2,30.00,SE,146,3.0,5.0,88,0.00,,,0.21,90,Wunderground v.1.15,2013-04-22 14:13:00,
2013-04-22 09:14:00,51.6,48.2,30.00,SE,146,3.0,5.0,88,0.00,,,0.21,90,Wunderground v.1.15,2013-04-22 14:14:00,
2013-04-22 09:16:00,51.6,48.2,30.00,SSE,148,3.0,5.0,88,0.00,,,0.21,74,Wunderground v.1.15,2013-04-22 14:16:00,
2013-04-22 09:17:00,51.6,48.5,30.01,SSE,155,4.0,5.0,89,0.00,,,0.21,65,Wunderground v.1.15,2013-04-22 14:17:00,
2013-04-22 09:18:00,51.5,48.1,30.01,SE,144,7.0,7.0,88,0.00,,,0.21,62,Wunderground v.1.15,2013-04-22 14:18:00,
2013-04-22 09:20:00,51.4,48.0,30.01,SSE,153,5.0,8.0,88,0.00,,,0.21,60,Wunderground v.1.15,2013-04-22 14:20:00,
2013-04-22 09:21:00,51.3,47.9,30.01,SSE,155,6.0,8.0,88,0.00,,,0.21,60,Wunderground v.1.15,2013-04-22 14:21:00,
2013-04-22 09:23:00,51.3,47.9,30.01,SSE,164,4.0,8.0,88,0.00,,,0.21,58,Wunderground v.1.15,2013-04-22 14:23:00,
2013-04-22 09:24:00,51.3,47.9,30.01,SSE,159,3.0,8.0,88,0.00,,,0.21,56,Wunderground v.1.15,2013-04-22 14:24:00,
2013-04-22 09:26:00,51.2,47.8,30.01,SSE,156,6.0,8.0,88,0.00,,,0.21,58,Wunderground v.1.15,2013-04-22 14:26:00,
2013-04-22 09:27:00,51.2,47.8,30.01,SSE,161,5.0,8.0,88,0.00,,,0.21,58,Wunderground v.1.15,2013-04-22 14:27:00,
2013-04-22 09:28:00,51.1,47.7,30.01,SSE,157,5.0,8.0,88,0.00,,,0.21,62,Wunderground v.1.15,2013-04-22 14:28:00,
2013-04-22 09:29:00,51.1,47.7,30.01,SSE,156,5.0,8.0,88,0.00,,,0.21,63,Wunderground v.1.15,2013-04-22 14:29:00,
2013-04-22 09:33:00,51.0,47.9,30.01,SSE,163,5.0,7.0,89,0.00,,,0.21,74,Wunderground v.1.15,2013-04-22 14:33:00,
2013-04-22 09:34:00,51.0,47.9,30.01,SSE,163,5.0,7.0,89,0.00,,,0.21,74,Wunderground v.1.15,2013-04-22 14:34:00,
2013-04-22 09:38:00,50.9,47.8,30.01,SSE,162,5.0,8.0,89,0.00,,,0.21,81,Wunderground v.1.15,2013-04-22 14:38:00,
2013-04-22 09:40:00,50.9,48.1,30.01,SSE,161,5.0,6.0,90,0.00,,,0.21,86,Wunderground v.1.15,2013-04-22 14:40:00,
2013-04-22 09:42:00,50.8,48.0,30.01,SSE,150,6.0,6.0,90,0.00,,,0.21,91,Wunderground v.1.15,2013-04-22 14:42:00,
2013-04-22 09:44:00,50.9,48.1,30.01,SSE,152,3.0,7.0,90,0.00,,,0.21,95,Wunderground v.1.15,2013-04-22 14:44:00,
2013-04-22 09:45:00,50.9,48.1,30.01,SE,136,8.0,8.0,90,0.00,,,0.21,95,Wunderground v.1.15,2013-04-22 14:45:00,
2013-04-22 09:46:00,50.8,48.0,30.01,SSE,159,6.0,8.0,90,0.00,,,0.21,93,Wunderground v.1.15,2013-04-22 14:46:00,
2013-04-22 09:48:00,50.9,48.1,30.01,SSE,158,1.0,8.0,90,0.00,,,0.21,90,Wunderground v.1.15,2013-04-22 14:48:00,
2013-04-22 09:50:00,50.9,48.1,30.01,SSE,160,6.0,8.0,90,0.00,,,0.21,84,Wunderground v.1.15,2013-04-22 14:50:00,
2013-04-22 09:51:00,50.9,48.1,30.01,SSE,157,5.0,7.0,90,0.00,,,0.21,84,Wunderground v.1.15,2013-04-22 14:51:00,
2013-04-22 09:52:00,50.9,48.1,30.01,SSE,150,2.0,7.0,90,0.00,,,0.21,83,Wunderground v.1.15,2013-04-22 14:52:00,
2013-04-22 09:53:00,50.9,48.1,30.01,SSE,159,6.0,7.0,90,0.00,,,0.21,83,Wunderground v.1.15,2013-04-22 14:53:00,
2013-04-22 09:54:00,50.9,48.1,30.01,SSE,166,4.0,7.0,90,0.00,,,0.21,83,Wunderground v.1.15,2013-04-22 14:54:00,
2013-04-22 09:55:00,50.9,48.1,30.01,SSE,165,3.0,7.0,90,0.00,,,0.21,81,Wunderground v.1.15,2013-04-22 14:55:00,
2013-04-22 09:58:00,50.9,47.8,30.01,SSE,155,5.0,7.0,89,0.00,,,0.21,86,Wunderground v.1.15,2013-04-22 14:58:00,
2013-04-22 10:01:00,51.0,47.9,30.01,SSE,162,5.0,5.0,89,0.00,,,0.21,105,Wunderground v.1.15,2013-04-22 15:01:00,
2013-04-22 10:03:00,51.0,47.6,30.01,SSE,163,5.0,6.0,88,0.00,,,0.21,105,Wunderground v.1.15,2013-04-22 15:03:00,
2013-04-22 10:04:00,51.0,47.6,30.01,SSE,164,5.0,6.0,88,0.00,,,0.21,97,Wunderground v.1.15,2013-04-22 15:04:00,
2013-04-22 10:06:00,51.0,47.6,30.01,SSE,156,6.0,6.0,88,0.00,,,0.21,98,Wunderground v.1.15,2013-04-22 15:06:00,
2013-04-22 10:08:00,51.1,48.0,30.01,South,173,6.0,6.0,89,0.00,,,0.21,100,Wunderground v.1.15,2013-04-22 15:08:00,
2013-04-22 10:09:00,51.1,48.0,30.01,South,173,4.0,6.0,89,0.00,,,0.21,100,Wunderground v.1.15,2013-04-22 15:09:00,
2013-04-22 10:13:00,51.2,48.1,30.01,South,169,5.0,5.0,89,0.00,,,0.21,100,Wunderground v.1.15,2013-04-22 15:13:00,
2013-04-22 10:14:00,51.2,48.1,30.01,SSE,167,6.0,6.0,89,0.00,,,0.21,100,Wunderground v.1.15,2013-04-22 15:14:00,
2013-04-22 10:16:00,51.2,48.1,30.01,South,172,7.0,7.0,89,0.00,,,0.21,102,Wunderground v.1.15,2013-04-22 15:16:00,
2013-04-22 10:17:00,51.1,48.0,30.01,South,180,5.0,8.0,89,0.00,,,0.21,111,Wunderground v.1.15,2013-04-22 15:17:00,
2013-04-22 10:18:00,51.2,48.1,30.01,South,190,5.0,8.0,89,0.00,,,0.21,114,Wunderground v.1.15,2013-04-22 15:18:00,
2013-04-22 10:20:00,51.2,48.1,30.01,South,173,4.0,8.0,89,0.00,,,0.21,125,Wunderground v.1.15,2013-04-22 15:20:00,
2013-04-22 10:22:00,51.3,48.2,30.01,South,173,3.0,5.0,89,0.00,,,0.21,134,Wunderground v.1.15,2013-04-22 15:22:00,
2013-04-22 10:23:00,51.4,48.6,30.01,South,174,4.0,5.0,90,0.00,,,0.21,141,Wunderground v.1.15,2013-04-22 15:23:00,
2013-04-22 10:27:00,51.4,48.6,30.01,SSE,166,5.0,6.0,90,0.00,,,0.21,149,Wunderground v.1.15,2013-04-22 15:27:00,
2013-04-22 10:28:00,51.4,48.6,30.01,SSE,168,5.0,6.0,90,0.00,,,0.21,149,Wunderground v.1.15,2013-04-22 15:28:00,
2013-04-22 10:29:00,51.5,48.7,30.01,SSE,157,5.0,6.0,90,0.00,,,0.21,151,Wunderground v.1.15,2013-04-22 15:29:00,
2013-04-22 10:33:00,51.6,48.5,30.00,SSE,168,7.0,7.0,89,0.00,,,0.21,162,Wunderground v.1.15,2013-04-22 15:33:00,
2013-04-22 10:34:00,51.6,48.2,30.00,SSE,167,5.0,7.0,88,0.00,,,0.21,163,Wunderground v.1.15,2013-04-22 15:34:00,
2013-04-22 10:35:00,51.6,48.2,30.00,SSE,165,5.0,7.0,88,0.00,,,0.21,167,Wunderground v.1.15,2013-04-22 15:35:00,
2013-04-22 10:36:00,51.6,48.5,30.00,SSE,152,7.0,7.0,89,0.00,,,0.21,172,Wunderground v.1.15,2013-04-22 15:36:00,
2013-04-22 10:39:00,51.7,48.3,30.00,SSE,157,5.0,7.0,88,0.00,,,0.21,178,Wunderground v.1.15,2013-04-22 15:39:00,
2013-04-22 10:40:00,51.7,48.3,30.00,SSE,152,6.0,7.0,88,0.00,,,0.21,179,Wunderground v.1.15,2013-04-22 15:40:00,
2013-04-22 10:41:00,51.7,48.6,30.00,SSE,155,2.0,5.0,89,0.00,,,0.21,179,Wunderground v.1.15,2013-04-22 15:41:00,
2013-04-22 10:44:00,51.9,48.5,30.00,SSE,155,6.0,8.0,88,0.00,,,0.21,176,Wunderground v.1.15,2013-04-22 15:44:00,
2013-04-22 10:45:00,51.8,48.4,30.00,SSE,150,6.0,8.0,88,0.00,,,0.21,176,Wunderground v.1.15,2013-04-22 15:45:00,
2013-04-22 10:47:00,51.9,48.5,30.00,SSE,162,5.0,8.0,88,0.00,,,0.21,178,Wunderground v.1.15,2013-04-22 15:47:00,
2013-04-22 10:49:00,51.9,48.2,30.00,SSE,159,3.0,8.0,87,0.00,,,0.21,186,Wunderground v.1.15,2013-04-22 15:49:00,
2013-04-22 10:50:00,52.0,48.6,30.00,SSE,165,5.0,8.0,88,0.00,,,0.21,192,Wunderground v.1.15,2013-04-22 15:50:00,
2013-04-22 10:51:00,52.1,49.0,30.00,SE,137,7.0,7.0,89,0.00,,,0.21,197,Wunderground v.1.15,2013-04-22 15:51:00,
2013-04-22 10:53:00,52.1,48.7,30.00,SSE,161,7.0,9.0,88,0.00,,,0.21,209,Wunderground v.1.15,2013-04-22 15:53:00,
2013-04-22 10:55:00,52.2,48.8,30.00,SSE,160,4.0,9.0,88,0.00,,,0.21,223,Wunderground v.1.15,2013-04-22 15:55:00,
2013-04-22 10:56:00,52.2,48.8,30.00,SSE,167,6.0,9.0,88,0.00,,,0.21,227,Wunderground v.1.15,2013-04-22 15:56:00,
2013-04-22 10:58:00,52.3,48.5,30.00,SSE,158,6.0,9.0,87,0.00,,,0.21,236,Wunderground v.1.15,2013-04-22 15:58:00,
2013-04-22 11:00:00,52.3,48.9,30.00,SSE,161,6.0,6.0,88,0.00,,,0.21,239,Wunderground v.1.15,2013-04-22 16:00:00,
2013-04-22 11:03:00,52.4,48.6,30.00,South,176,6.0,7.0,87,0.00,,,0.21,243,Wunderground v.1.15,2013-04-22 16:03:00,
2013-04-22 11:04:00,52.5,49.0,30.00,South,178,6.0,7.0,88,0.00,,,0.21,246,Wunderground v.1.15,2013-04-22 16:04:00,
2013-04-22 11:06:00,52.6,49.1,30.00,South,173,5.0,7.0,88,0.00,,,0.21,246,Wunderground v.1.15,2013-04-22 16:06:00,
2013-04-22 11:07:00,52.6,48.8,30.00,South,172,4.0,7.0,87,0.00,,,0.21,246,Wunderground v.1.15,2013-04-22 16:07:00,
2013-04-22 11:09:00,52.6,48.8,30.00,SSE,156,4.0,7.0,87,0.00,,,0.21,248,Wunderground v.1.15,2013-04-22 16:09:00,
2013-04-22 11:11:00,52.6,48.8,30.00,SSE,165,6.0,6.0,87,0.00,,,0.21,251,Wunderground v.1.15,2013-04-22 16:11:00,
2013-04-22 11:12:00,52.7,48.6,30.00,South,169,5.0,6.0,86,0.00,,,0.21,258,Wunderground v.1.15,2013-04-22 16:12:00,
2013-04-22 11:15:00,52.9,49.1,30.00,SSE,158,5.0,8.0,87,0.00,,,0.21,272,Wunderground v.1.15,2013-04-22 16:15:00,
2013-04-22 11:17:00,53.0,49.5,30.00,SE,145,6.0,8.0,88,0.00,,,0.21,290,Wunderground v.1.15,2013-04-22 16:17:00,
2013-04-22 11:18:00,53.1,49.3,30.00,SE,144,6.0,8.0,87,0.00,,,0.21,290,Wunderground v.1.15,2013-04-22 16:18:00,
2013-04-22 11:20:00,53.3,49.8,30.00,SSE,167,4.0,5.0,88,0.00,,,0.21,318,Wunderground v.1.15,2013-04-22 16:20:00,
2013-04-22 11:23:00,53.6,49.8,30.00,South,178,6.0,7.0,87,0.00,,,0.21,338,Wunderground v.1.15,2013-04-22 16:23:00,
2013-04-22 11:24:00,53.6,49.5,30.00,South,174,4.0,7.0,86,0.00,,,0.21,352,Wunderground v.1.15,2013-04-22 16:24:00,
2013-04-22 11:25:00,53.7,49.9,30.00,South,171,5.0,7.0,87,0.00,,,0.21,369,Wunderground v.1.15,2013-04-22 16:25:00,
2013-04-22 11:26:00,53.8,50.0,30.00,SSE,167,8.0,8.0,87,0.00,,,0.21,369,Wunderground v.1.15,2013-04-22 16:26:00,
2013-04-22 11:28:00,53.8,49.1,30.00,South,179,5.0,8.0,84,0.00,,,0.21,396,Wunderground v.1.15,2013-04-22 16:28:00,
2013-04-22 11:29:00,54.0,49.6,30.00,SSE,158,5.0,8.0,85,0.00,,,0.21,422,Wunderground v.1.15,2013-04-22 16:29:00,
2013-04-22 11:30:00,54.0,49.6,30.00,South,187,6.0,8.0,85,0.00,,,0.21,464,Wunderground v.1.15,2013-04-22 16:30:00,
2013-04-22 11:31:00,54.2,49.8,29.99,South,173,3.0,7.0,85,0.00,,,0.21,468,Wunderground v.1.15,2013-04-22 16:31:00,
2013-04-22 11:34:00,54.5,49.4,29.99,South,172,6.0,8.0,83,0.00,,,0.21,461,Wunderground v.1.15,2013-04-22 16:34:00,
2013-04-22 11:35:00,54.6,49.9,29.99,South,181,7.0,9.0,84,0.00,,,0.21,464,Wunderground v.1.15,2013-04-22 16:35:00,
2013-04-22 11:37:00,54.8,50.1,29.99,South,178,7.0,9.0,84,0.00,,,0.21,497,Wunderground v.1.15,2013-04-22 16:37:00,
2013-04-22 11:39:00,55.1,50.4,29.99,South,170,6.0,11.0,84,0.00,,,0.21,577,Wunderground v.1.15,2013-04-22 16:39:00,
2013-04-22 11:40:00,55.3,50.5,29.99,South,172,5.0,8.0,84,0.00,,,0.21,577,Wunderground v.1.15,2013-04-22 16:40:00,
2013-04-22 11:42:00,55.5,49.8,29.99,SSE,166,5.0,12.0,81,0.00,,,0.21,598,Wunderground v.1.15,2013-04-22 16:42:00,
2013-04-22 11:43:00,55.6,50.2,29.99,South,184,6.0,12.0,82,0.00,,,0.21,575,Wunderground v.1.15,2013-04-22 16:43:00,
2013-04-22 11:45:00,55.7,50.6,29.99,SSE,166,9.0,12.0,83,0.00,,,0.21,566,Wunderground v.1.15,2013-04-22 16:45:00,
2013-04-22 11:46:00,55.8,50.4,29.99,SSE,148,7.0,12.0,82,0.00,,,0.21,529,Wunderground v.1.15,2013-04-22 16:46:00,
2013-04-22 11:47:00,55.8,50.4,29.99,South,171,5.0,12.0,82,0.00,,,0.21,469,Wunderground v.1.15,2013-04-22 16:47:00,
2013-04-22 11:49:00,55.8,50.1,29.99,South,169,8.0,12.0,81,0.00,,,0.21,445,Wunderground v.1.15,2013-04-22 16:49:00,
2013-04-22 11:52:00,55.7,50.0,29.99,South,172,7.0,9.0,81,0.00,,,0.21,408,Wunderground v.1.15,2013-04-22 16:52:00,
2013-04-22 11:53:00,55.7,49.6,29.99,South,180,4.0,9.0,80,0.00,,,0.21,408,Wunderground v.1.15,2013-04-22 16:53:00,
2013-04-22 11:55:00,55.7,50.0,29.99,South,180,6.0,9.0,81,0.00,,,0.21,366,Wunderground v.1.15,2013-04-22 16:55:00,
2013-04-22 11:56:00,55.8,50.4,29.99,South,185,9.0,9.0,82,0.00,,,0.21,366,Wunderground v.1.15,2013-04-22 16:56:00,
2013-04-22 11:57:00,55.8,50.7,29.99,South,185,5.0,9.0,83,0.00,,,0.21,359,Wunderground v.1.15,2013-04-22 16:57:00,
2013-04-22 11:58:00,55.9,50.5,29.99,South,187,7.0,9.0,82,0.00,,,0.21,367,Wunderground v.1.15,2013-04-22 16:58:00,
2013-04-22 11:59:00,56.0,50.6,29.99,South,188,5.0,9.0,82,0.00,,,0.21,369,Wunderground v.1.15,2013-04-22 16:59:00,
2013-04-22 12:01:00,56.1,50.7,29.99,South,179,8.0,8.0,82,0.00,,,0.21,359,Wunderground v.1.15,2013-04-22 17:01:00,
2013-04-22 12:03:00,56.1,50.7,29.98,South,185,8.0,9.0,82,0.00,,,0.21,339,Wunderground v.1.15,2013-04-22 17:03:00,
2013-04-22 12:04:00,56.0,49.9,29.98,South,181,8.0,11.0,80,0.00,,,0.21,327,Wunderground v.1.15,2013-04-22 17:04:00,
2013-04-22 12:05:00,56.0,50.3,29.98,South,176,6.0,11.0,81,0.00,,,0.21,327,Wunderground v.1.15,2013-04-22 17:05:00,
2013-04-22 12:09:00,56.0,50.3,29.98,South,169,5.0,11.0,81,0.00,,,0.21,350,Wunderground v.1.15,2013-04-22 17:09:00,
2013-04-22 12:11:00,56.0,50.9,29.98,South,170,6.0,7.0,83,0.00,,,0.21,385,Wunderground v.1.15,2013-04-22 17:11:00,
2013-04-22 12:14:00,56.3,50.5,29.97,SSW,200,7.0,10.0,81,0.00,,,0.21,378,Wunderground v.1.15,2013-04-22 17:14:00,
2013-04-22 12:16:00,56.4,51.3,29.97,SSW,194,7.0,10.0,83,0.00,,,0.21,367,Wunderground v.1.15,2013-04-22 17:16:00,
2013-04-22 12:17:00,56.5,51.4,29.97,South,190,9.0,10.0,83,0.00,,,0.21,371,Wunderground v.1.15,2013-04-22 17:17:00,
2013-04-22 12:18:00,56.5,50.4,29.97,SSW,192,7.0,10.0,80,0.00,,,0.21,376,Wunderground v.1.15,2013-04-22 17:18:00,
2013-04-22 12:19:00,56.5,50.7,29.97,South,175,4.0,10.0,81,0.00,,,0.21,376,Wunderground v.1.15,2013-04-22 17:19:00,
2013-04-22 12:20:00,56.5,51.1,29.97,South,173,6.0,10.0,82,0.00,,,0.21,376,Wunderground v.1.15,2013-04-22 17:20:00,
2013-04-22 12:22:00,56.4,50.6,29.97,South,169,9.0,9.0,81,0.00,,,0.21,366,Wunderground v.1.15,2013-04-22 17:22:00,
2013-04-22 12:24:00,56.4,50.6,29.98,South,175,8.0,9.0,81,0.00,,,0.21,367,Wunderground v.1.15,2013-04-22 17:24:00,
2013-04-22 12:25:00,56.5,51.4,29.98,South,175,9.0,10.0,83,0.00,,,0.21,401,Wunderground v.1.15,2013-04-22 17:25:00,
2013-04-22 12:27:00,56.7,51.3,29.98,SSW,202,7.0,10.0,82,0.00,,,0.21,403,Wunderground v.1.15,2013-04-22 17:27:00,
2013-04-22 12:28:00,56.7,51.3,29.98,South,186,10.0,10.0,82,0.00,,,0.21,403,Wunderground v.1.15,2013-04-22 17:28:00,
2013-04-22 12:29:00,56.8,50.7,29.98,SW,214,9.0,10.0,80,0.00,,,0.21,403,Wunderground v.1.15,2013-04-22 17:29:00,
2013-04-22 12:30:00,56.8,50.4,29.98,SSW,197,9.0,10.0,79,0.00,,,0.21,387,Wunderground v.1.15,2013-04-22 17:30:00,
2013-04-22 12:31:00,56.8,50.7,29.98,SSW,198,4.0,10.0,80,0.00,,,0.21,387,Wunderground v.1.15,2013-04-22 17:31:00,
2013-04-22 12:34:00,56.8,50.4,29.98,South,180,6.0,10.0,79,0.00,,,0.21,378,Wunderground v.1.15,2013-04-22 17:34:00,
2013-04-22 12:35:00,56.8,50.4,29.97,South,175,7.0,10.0,79,0.00,,,0.21,378,Wunderground v.1.15,2013-04-22 17:35:00,
2013-04-22 12:36:00,56.7,50.3,29.97,South,178,8.0,10.0,79,0.00,,,0.21,373,Wunderground v.1.15,2013-04-22 17:36:00,
2013-04-22 12:37:00,56.7,50.3,29.97,SSE,159,6.0,10.0,79,0.00,,,0.21,371,Wunderground v.1.15,2013-04-22 17:37:00,
2013-04-22 12:40:00,56.6,50.2,29.97,SSW,194,7.0,10.0,79,0.00,,,0.21,388,Wunderground v.1.15,2013-04-22 17:40:00,
2013-04-22 12:41:00,56.6,50.5,29.97,South,177,4.0,7.0,80,0.00,,,0.21,406,Wunderground v.1.15,2013-04-22 17:41:00,
2013-04-22 12:42:00,56.7,51.3,29.97,South,173,4.0,7.0,82,0.00,,,0.21,406,Wunderground v.1.15,2013-04-22 17:42:00,
2013-04-22 12:43:00,56.9,51.8,29.97,SSE,165,9.0,9.0,83,0.00,,,0.21,427,Wunderground v.1.15,2013-04-22 17:43:00,
2013-04-22 12:46:00,56.9,50.1,29.96,SSE,167,6.0,9.0,78,0.00,,,0.21,434,Wunderground v.1.15,2013-04-22 17:46:00,
2013-04-22 12:47:00,56.9,50.1,29.96,SSE,159,6.0,9.0,78,0.00,,,0.21,434,Wunderground v.1.15,2013-04-22 17:47:00,
2013-04-22 12:48:00,56.8,50.7,29.96,South,182,10.0,10.0,80,0.00,,,0.21,443,Wunderground v.1.15,2013-04-22 17:48:00,
2013-04-22 12:52:00,56.9,50.5,29.96,South,176,3.0,7.0,79,0.00,,,0.21,492,Wunderground v.1.15,2013-04-22 17:52:00,
2013-04-22 12:53:00,57.1,51.3,29.96,South,184,8.0,9.0,81,0.00,,,0.21,519,Wunderground v.1.15,2013-04-22 17:53:00,
2013-04-22 12:57:00,57.5,51.4,29.96,South,187,8.0,10.0,80,0.00,,,0.21,640,Wunderground v.1.15,2013-04-22 17:57:00,
2013-04-22 12:58:00,57.5,51.4,29.96,South,188,5.0,10.0,80,0.00,,,0.21,640,Wunderground v.1.15,2013-04-22 17:58:00,
2013-04-22 12:59:00,57.7,51.6,29.96,SSW,192,7.0,10.0,80,0.00,,,0.21,647,Wunderground v.1.15,2013-04-22 17:59:00,
2013-04-22 13:04:00,58.0,50.8,29.95,South,188,5.0,9.0,77,0.00,,,0.21,657,Wunderground v.1.15,2013-04-22 18:04:00,
2013-04-22 13:06:00,58.0,50.8,29.95,SE,143,8.0,9.0,77,0.00,,,0.21,677,Wunderground v.1.15,2013-04-22 18:06:00,
2013-04-22 13:09:00,58.1,51.6,29.95,SSE,150,3.0,9.0,79,0.00,,,0.21,751,Wunderground v.1.15,2013-04-22 18:09:00,
2013-04-22 13:10:00,58.2,51.7,29.95,South,171,7.0,7.0,79,0.00,,,0.21,679,Wunderground v.1.15,2013-04-22 18:10:00,
2013-04-22 13:11:00,58.4,51.9,29.95,South,172,7.0,7.0,79,0.00,,,0.21,638,Wunderground v.1.15,2013-04-22 18:11:00,
2013-04-22 13:12:00,58.4,50.9,29.95,South,177,8.0,8.0,76,0.00,,,0.21,638,Wunderground v.1.15,2013-04-22 18:12:00,
2013-04-22 13:13:00,58.4,50.9,29.95,SSE,166,5.0,9.0,76,0.00,,,0.21,621,Wunderground v.1.15,2013-04-22 18:13:00,
2013-04-22 13:15:00,58.3,50.8,29.94,SSE,157,4.0,9.0,76,0.00,,,0.21,496,Wunderground v.1.15,2013-04-22 18:15:00,
2013-04-22 13:16:00,58.4,51.9,29.94,SSE,156,6.0,9.0,79,0.00,,,0.21,499,Wunderground v.1.15,2013-04-22 18:16:00,
2013-04-22 13:17:00,58.4,51.9,29.94,SE,142,4.0,9.0,79,0.00,,,0.21,499,Wunderground v.1.15,2013-04-22 18:17:00,
2013-04-22 13:18:00,58.4,51.2,29.94,SSE,150,4.0,9.0,77,0.00,,,0.21,555,Wunderground v.1.15,2013-04-22 18:18:00,
2013-04-22 13:20:00,58.5,50.6,29.94,SSW,202,5.0,7.0,75,0.00,,,0.21,708,Wunderground v.1.15,2013-04-22 18:20:00,
2013-04-22 13:21:00,58.5,50.2,29.94,SSE,163,5.0,7.0,74,0.00,,,0.21,782,Wunderground v.1.15,2013-04-22 18:21:00,
2013-04-22 13:22:00,58.5,50.6,29.94,SSE,161,5.0,7.0,75,0.00,,,0.21,782,Wunderground v.1.15,2013-04-22 18:22:00,
2013-04-22 13:23:00,58.6,50.3,29.94,SE,145,7.0,12.0,74,0.00,,,0.21,821,Wunderground v.1.15,2013-04-22 18:23:00,
2013-04-22 13:24:00,58.7,51.5,29.94,SSE,162,5.0,12.0,77,0.00,,,0.21,823,Wunderground v.1.15,2013-04-22 18:24:00,
2013-04-22 13:26:00,58.9,51.0,29.94,South,181,3.0,12.0,75,0.00,,,0.21,860,Wunderground v.1.15,2013-04-22 18:26:00,
2013-04-22 13:27:00,58.9,50.3,29.94,SSE,166,6.0,12.0,73,0.00,,,0.21,782,Wunderground v.1.15,2013-04-22 18:27:00,
2013-04-22 13:29:00,59.1,51.5,29.94,SSE,157,12.0,15.0,76,0.00,,,0.21,809,Wunderground v.1.15,2013-04-22 18:29:00,
2013-04-22 13:32:00,59.6,51.7,29.94,SE,145,7.0,7.0,75,0.00,,,0.21,868,Wunderground v.1.15,2013-04-22 18:32:00,
2013-04-22 13:33:00,59.6,52.4,29.94,SSW,201,7.0,7.0,77,0.00,,,0.21,802,Wunderground v.1.15,2013-04-22 18:33:00,
2013-04-22 13:35:00,59.8,51.9,29.93,South,188,4.0,7.0,75,0.00,,,0.21,754,Wunderground v.1.15,2013-04-22 18:35:00,
2013-04-22 13:37:00,59.7,51.4,29.93,SE,144,5.0,7.0,74,0.00,,,0.21,619,Wunderground v.1.15,2013-04-22 18:37:00,
2013-04-22 13:38:00,59.7,52.5,29.93,SSE,153,9.0,11.0,77,0.00,,,0.21,608,Wunderground v.1.15,2013-04-22 18:38:00,
2013-04-22 13:39:00,59.7,52.5,29.93,SSE,150,5.0,11.0,77,0.00,,,0.21,608,Wunderground v.1.15,2013-04-22 18:39:00,
2013-04-22 13:41:00,59.9,52.3,29.93,SSE,165,6.0,6.0,76,0.00,,,0.21,779,Wunderground v.1.15,2013-04-22 18:41:00,
2013-04-22 13:42:00,60.0,53.1,29.93,South,171,8.0,8.0,78,0.00,,,0.21,779,Wunderground v.1.15,2013-04-22 18:42:00,
2013-04-22 13:43:00,60.2,52.6,29.93,SSE,163,5.0,8.0,76,0.00,,,0.21,717,Wunderground v.1.15,2013-04-22 18:43:00,
2013-04-22 13:44:00,60.2,51.9,29.93,South,179,7.0,8.0,74,0.00,,,0.21,698,Wunderground v.1.15,2013-04-22 18:44:00,
2013-04-22 13:45:00,60.2,52.6,29.93,South,173,3.0,9.0,76,0.00,,,0.21,874,Wunderground v.1.15,2013-04-22 18:45:00,
2013-04-22 13:47:00,60.1,51.8,29.93,South,173,8.0,9.0,74,0.00,,,0.21,874,Wunderground v.1.15,2013-04-22 18:47:00,
2013-04-22 13:49:00,60.5,53.3,29.93,SSE,148,9.0,9.0,77,0.00,,,0.21,782,Wunderground v.1.15,2013-04-22 18:49:00,
2013-04-22 13:50:00,60.4,51.7,29.92,SE,144,10.0,10.0,73,0.00,,,0.21,865,Wunderground v.1.15,2013-04-22 18:50:00,
2013-04-22 13:51:00,60.5,53.3,29.92,SSE,147,5.0,11.0,77,0.00,,,0.21,805,Wunderground v.1.15,2013-04-22 18:51:00,
2013-04-22 13:52:00,60.5,52.2,29.92,SE,136,6.0,11.0,74,0.00,,,0.21,805,Wunderground v.1.15,2013-04-22 18:52:00,
2013-04-22 13:53:00,60.6,51.9,29.92,SSE,157,2.0,11.0,73,0.00,,,0.21,810,Wunderground v.1.15,2013-04-22 18:53:00,
2013-04-22 13:54:00,60.8,53.5,29.92,South,169,6.0,11.0,77,0.00,,,0.21,812,Wunderground v.1.15,2013-04-22 18:54:00,
2013-04-22 13:55:00,61.0,53.7,29.92,SSW,207,7.0,11.0,77,0.00,,,0.21,770,Wunderground v.1.15,2013-04-22 18:55:00,
2013-04-22 13:56:00,61.1,53.1,29.92,SSW,192,8.0,11.0,75,0.00,,,0.21,770,Wunderground v.1.15,2013-04-22 18:56:00,
2013-04-22 13:58:00,60.9,51.8,29.92,SSE,161,6.0,11.0,72,0.00,,,0.21,770,Wunderground v.1.15,2013-04-22 18:58:00,
2013-04-22 13:59:00,61.0,53.7,29.92,SSE,160,5.0,11.0,77,0.00,,,0.21,914,Wunderground v.1.15,2013-04-22 18:59:00,
2013-04-22 14:01:00,60.7,50.9,29.92,SSE,161,1.0,6.0,70,0.00,,,0.21,937,Wunderground v.1.15,2013-04-22 19:01:00,
2013-04-22 14:02:00,60.7,50.9,29.92,SE,146,5.0,6.0,70,0.00,,,0.21,939,Wunderground v.1.15,2013-04-22 19:02:00,
2013-04-22 14:04:00,61.0,51.5,29.92,SSE,163,8.0,8.0,71,0.00,,,0.21,921,Wunderground v.1.15,2013-04-22 19:04:00,
2013-04-22 14:06:00,61.4,53.8,29.92,SE,125,5.0,8.0,76,0.00,,,0.21,986,Wunderground v.1.15,2013-04-22 19:06:00,
2013-04-22 14:09:00,61.6,52.9,29.92,SSW,197,8.0,10.0,73,0.00,,,0.21,788,Wunderground v.1.15,2013-04-22 19:09:00,
2013-04-22 14:11:00,61.6,53.6,29.92,South,180,4.0,9.0,75,0.00,,,0.21,788,Wunderground v.1.15,2013-04-22 19:11:00,
2013-04-22 14:12:00,61.7,53.7,29.92,SSE,154,3.0,9.0,75,0.00,,,0.21,788,Wunderground v.1.15,2013-04-22 19:12:00,
2013-04-22 14:15:00,61.9,51.6,29.92,SE,136,5.0,9.0,69,0.00,,,0.21,976,Wunderground v.1.15,2013-04-22 19:15:00,
2013-04-22 14:17:00,61.7,53.0,29.92,SSE,150,5.0,9.0,73,0.00,,,0.21,984,Wunderground v.1.15,2013-04-22 19:17:00,
2013-04-22 14:18:00,61.8,52.3,29.92,SSE,163,4.0,9.0,71,0.00,,,0.21,984,Wunderground v.1.15,2013-04-22 19:18:00,
2013-04-22 14:20:00,62.1,53.0,29.91,SSE,151,6.0,6.0,72,0.00,,,0.21,984,Wunderground v.1.15,2013-04-22 19:20:00,
2013-04-22 14:23:00,62.2,53.4,29.91,SSE,148,4.0,8.0,73,0.00,,,0.21,635,Wunderground v.1.15,2013-04-22 19:23:00,
2013-04-22 14:24:00,62.2,53.1,29.91,SE,142,6.0,8.0,72,0.00,,,0.21,635,Wunderground v.1.15,2013-04-22 19:24:00,
2013-04-22 14:25:00,62.4,54.0,29.91,ESE,112,7.0,8.0,74,0.00,,,0.21,566,Wunderground v.1.15,2013-04-22 19:25:00,
2013-04-22 14:26:00,62.4,54.0,29.91,SE,128,4.0,8.0,74,0.00,,,0.21,566,Wunderground v.1.15,2013-04-22 19:26:00,
2013-04-22 14:30:00,63.1,53.5,29.91,South,170,6.0,6.0,71,0.00,,,0.21,921,Wunderground v.1.15,2013-04-22 19:30:00,
2013-04-22 14:31:00,63.2,54.4,29.91,SSE,149,7.0,7.0,73,0.00,,,0.21,921,Wunderground v.1.15,2013-04-22 19:31:00,
2013-04-22 14:32:00,63.5,54.7,29.91,South,191,10.0,11.0,73,0.00,,,0.21,867,Wunderground v.1.15,2013-04-22 19:32:00,
2013-04-22 14:36:00,63.8,53.0,29.90,SSE,168,4.0,12.0,68,0.00,,,0.21,745,Wunderground v.1.15,2013-04-22 19:36:00,
2013-04-22 14:37:00,63.6,53.2,29.90,SSE,166,8.0,12.0,69,0.00,,,0.21,745,Wunderground v.1.15,2013-04-22 19:37:00,
2013-04-22 14:38:00,63.5,53.1,29.90,SSE,167,6.0,12.0,69,0.00,,,0.21,443,Wunderground v.1.15,2013-04-22 19:38:00,
2013-04-22 14:41:00,63.5,54.3,29.90,SSE,167,8.0,8.0,72,0.00,,,0.21,780,Wunderground v.1.15,2013-04-22 19:41:00,
2013-04-22 14:42:00,63.5,51.5,29.90,SSE,155,7.0,10.0,65,0.00,,,0.21,626,Wunderground v.1.15,2013-04-22 19:42:00,
2013-04-22 14:43:00,63.5,51.5,29.90,South,171,4.0,10.0,65,0.00,,,0.21,626,Wunderground v.1.15,2013-04-22 19:43:00,
2013-04-22 14:45:00,63.5,52.7,29.89,SSE,153,5.0,10.0,68,0.00,,,0.21,773,Wunderground v.1.15,2013-04-22 19:45:00,
2013-04-22 14:46:00,63.4,52.7,29.89,SSE,153,9.0,10.0,68,0.00,,,0.21,731,Wunderground v.1.15,2013-04-22 19:46:00,
2013-04-22 14:47:00,63.5,53.5,29.89,South,169,6.0,10.0,70,0.00,,,0.21,693,Wunderground v.1.15,2013-04-22 19:47:00,
2013-04-22 14:48:00,63.4,53.0,29.89,South,186,5.0,10.0,69,0.00,,,0.21,693,Wunderground v.1.15,2013-04-22 19:48:00,
2013-04-22 14:49:00,63.2,52.5,29.89,South,186,0.0,10.0,68,0.00,,,0.21,504,Wunderground v.1.15,2013-04-22 19:49:00,
2013-04-22 14:52:00,63.5,53.5,29.89,SSE,150,7.0,7.0,70,0.00,,,0.21,729,Wunderground v.1.15,2013-04-22 19:52:00,
2013-04-22 14:53:00,63.6,52.8,29.89,SSE,160,8.0,9.0,68,0.00,,,0.21,729,Wunderground v.1.15,2013-04-22 19:53:00,
2013-04-22 14:54:00,63.5,52.7,29.89,SE,136,8.0,9.0,68,0.00,,,0.21,729,Wunderground v.1.15,2013-04-22 19:54:00,
2013-04-22 14:55:00,63.5,53.5,29.89,ESE,121,5.0,9.0,70,0.00,,,0.21,432,Wunderground v.1.15,2013-04-22 19:55:00,
2013-04-22 14:57:00,63.2,52.1,29.89,SE,126,6.0,9.0,67,0.00,,,0.21,552,Wunderground v.1.15,2013-04-22 19:57:00,
2013-04-22 14:58:00,63.3,52.6,29.89,SE,128,5.0,9.0,68,0.00,,,0.21,613,Wunderground v.1.15,2013-04-22 19:58:00,
2013-04-22 14:59:00,63.3,52.2,29.89,ESE,105,8.0,9.0,67,0.00,,,0.21,596,Wunderground v.1.15,2013-04-22 19:59:00,
2013-04-22 15:00:00,63.2,51.6,29.89,SE,140,5.0,7.0,66,0.00,,,0.21,566,Wunderground v.1.15,2013-04-22 20:00:00,
2013-04-22 15:02:00,63.5,54.7,29.89,ESE,123,7.0,7.0,73,0.00,,,0.21,550,Wunderground v.1.15,2013-04-22 20:02:00,
2013-04-22 15:04:00,63.8,53.0,29.89,SE,135,5.0,7.0,68,0.00,,,0.21,543,Wunderground v.1.15,2013-04-22 20:04:00,
2013-04-22 15:05:00,63.7,52.1,29.89,ESE,102,4.0,7.0,66,0.00,,,0.21,543,Wunderground v.1.15,2013-04-22 20:05:00,
2013-04-22 15:06:00,63.4,51.4,29.89,SE,146,2.0,7.0,65,0.00,,,0.21,403,Wunderground v.1.15,2013-04-22 20:06:00,
2013-04-22 15:08:00,63.1,50.7,29.88,SSE,149,4.0,7.0,64,0.00,,,0.21,533,Wunderground v.1.15,2013-04-22 20:08:00,
2013-04-22 15:10:00,63.3,52.2,29.88,ESE,104,8.0,8.0,67,0.00,,,0.21,352,Wunderground v.1.15,2013-04-22 20:10:00,
2013-04-22 15:11:00,63.3,51.7,29.88,East,98,1.0,8.0,66,0.00,,,0.21,348,Wunderground v.1.15,2013-04-22 20:11:00,
2013-04-22 15:12:00,63.2,51.6,29.88,ESE,119,5.0,8.0,66,0.00,,,0.21,330,Wunderground v.1.15,2013-04-22 20:12:00,
2013-04-22 15:14:00,63.4,53.0,29.88,ESE,119,8.0,8.0,69,0.00,,,0.21,299,Wunderground v.1.15,2013-04-22 20:14:00,
2013-04-22 15:15:00,63.4,52.2,29.88,ESE,105,4.0,8.0,67,0.00,,,0.21,276,Wunderground v.1.15,2013-04-22 20:15:00,
2013-04-22 15:16:00,63.3,52.2,29.88,ESE,105,3.0,8.0,67,0.00,,,0.21,265,Wunderground v.1.15,2013-04-22 20:16:00,
2013-04-22 15:17:00,63.1,52.0,29.88,East,97,7.0,9.0,67,0.00,,,0.21,255,Wunderground v.1.15,2013-04-22 20:17:00,
2013-04-22 15:20:00,62.7,52.0,29.87,SE,126,5.0,5.0,68,0.00,,,0.21,181,Wunderground v.1.15,2013-04-22 20:20:00,
2013-04-22 15:21:00,62.7,52.0,29.87,ESE,109,3.0,5.0,68,0.00,,,0.21,181,Wunderground v.1.15,2013-04-22 20:21:00,
2013-04-22 15:23:00,62.5,51.4,29.87,ESE,109,3.0,7.0,67,0.00,,,0.21,171,Wunderground v.1.15,2013-04-22 20:23:00,
2013-04-22 15:24:00,62.5,51.8,29.87,East,93,5.0,7.0,68,0.00,,,0.21,171,Wunderground v.1.15,2013-04-22 20:24:00,
2013-04-22 15:26:00,62.3,52.0,29.87,East,98,7.0,7.0,69,0.00,,,0.21,135,Wunderground v.1.15,2013-04-22 20:26:00,
2013-04-22 15:27:00,62.3,52.0,29.87,East,94,5.0,7.0,69,0.00,,,0.21,120,Wunderground v.1.15,2013-04-22 20:27:00,
2013-04-22 15:29:00,62.2,51.5,29.87,ESE,105,3.0,7.0,68,0.00,,,0.21,91,Wunderground v.1.15,2013-04-22 20:29:00,
2013-04-22 15:30:00,62.2,51.9,29.87,East,90,8.0,8.0,69,0.00,,,0.21,83,Wunderground v.1.15,2013-04-22 20:30:00,
2013-04-22 15:32:00,62.1,51.4,29.87,ESE,112,7.0,9.0,68,0.00,,,0.21,84,Wunderground v.1.15,2013-04-22 20:32:00,
2013-04-22 15:33:00,62.1,51.4,29.87,ESE,118,7.0,9.0,68,0.00,,,0.21,98,Wunderground v.1.15,2013-04-22 20:33:00,
2013-04-22 15:36:00,62.1,51.8,29.87,ESE,120,7.0,9.0,69,0.00,,,0.21,100,Wunderground v.1.15,2013-04-22 20:36:00,
2013-04-22 15:37:00,62.0,51.7,29.87,SE,140,5.0,9.0,69,0.00,,,0.21,90,Wunderground v.1.15,2013-04-22 20:37:00,
2013-04-22 15:38:00,62.0,51.3,29.87,SE,132,3.0,9.0,68,0.00,,,0.21,81,Wunderground v.1.15,2013-04-22 20:38:00,
2013-04-22 15:39:00,62.0,51.7,29.87,ESE,119,7.0,9.0,69,0.00,,,0.21,81,Wunderground v.1.15,2013-04-22 20:39:00,
2013-04-22 15:40:00,62.0,51.7,29.87,ESE,111,5.0,9.0,69,0.00,,,0.21,79,Wunderground v.1.15,2013-04-22 20:40:00,
2013-04-22 15:43:00,61.9,51.6,29.86,SE,134,2.0,5.0,69,0.00,,,0.21,90,Wunderground v.1.15,2013-04-22 20:43:00,
2013-04-22 15:45:00,61.8,51.5,29.86,SE,133,2.0,5.0,69,0.00,,,0.21,76,Wunderground v.1.15,2013-04-22 20:45:00,
2013-04-22 15:49:00,61.8,51.9,29.86,ESE,115,4.0,6.0,70,0.00,,,0.21,51,Wunderground v.1.15,2013-04-22 20:49:00,
2013-04-22 15:50:00,61.8,51.5,29.86,ESE,115,1.0,4.0,69,0.00,,,0.22,54,Wunderground v.1.15,2013-04-22 20:50:00,
2013-04-22 15:53:00,61.6,51.7,29.86,SSE,148,5.0,5.0,70,0.00,,,0.22,111,Wunderground v.1.15,2013-04-22 20:53:00,
2013-04-22 15:55:00,61.7,51.8,29.86,ESE,121,3.0,5.0,70,0.00,,,0.22,97,Wunderground v.1.15,2013-04-22 20:55:00,
2013-04-22 15:57:00,61.7,52.2,29.86,ESE,121,4.0,7.0,71,0.00,,,0.22,39,Wunderground v.1.15,2013-04-22 20:57:00,
2013-04-22 15:58:00,61.7,52.2,29.86,SSE,155,9.0,9.0,71,0.00,,,0.22,33,Wunderground v.1.15,2013-04-22 20:58:00,
2013-04-22 16:00:00,61.7,51.4,29.86,South,178,8.0,8.0,69,0.00,,,0.22,37,Wunderground v.1.15,2013-04-22 21:00:00,
2013-04-22 16:01:00,61.6,52.1,29.86,SSE,162,9.0,10.0,71,0.00,,,0.22,40,Wunderground v.1.15,2013-04-22 21:01:00,
2013-04-22 16:04:00,61.3,52.2,29.86,SSE,153,10.0,13.0,72,0.00,,,0.22,76,Wunderground v.1.15,2013-04-22 21:04:00,
2013-04-22 16:06:00,61.0,51.5,29.86,South,171,8.0,13.0,71,0.00,,,0.22,86,Wunderground v.1.15,2013-04-22 21:06:00,
2013-04-22 16:08:00,60.8,51.0,29.86,SSE,160,6.0,13.0,70,0.00,,,0.22,76,Wunderground v.1.15,2013-04-22 21:08:00,
2013-04-22 16:09:00,60.8,51.3,29.86,SSE,164,6.0,13.0,71,0.00,,,0.22,69,Wunderground v.1.15,2013-04-22 21:09:00,
2013-04-22 16:12:00,60.5,51.8,29.86,SSE,155,10.0,10.0,73,0.00,,,0.22,62,Wunderground v.1.15,2013-04-22 21:12:00,
2013-04-22 16:13:00,60.5,51.8,29.86,SE,146,7.0,10.0,73,0.00,,,0.22,62,Wunderground v.1.15,2013-04-22 21:13:00,
2013-04-22 16:15:00,60.4,50.2,29.86,SSE,148,13.0,17.0,69,0.00,,,0.23,107,Wunderground v.1.15,2013-04-22 21:15:00,
2013-04-22 16:17:00,60.7,48.0,29.85,South,171,8.0,17.0,63,0.00,,,0.23,179,Wunderground v.1.15,2013-04-22 21:17:00,
2013-04-22 16:18:00,60.8,49.8,29.85,South,170,6.0,17.0,67,0.00,,,0.23,204,Wunderground v.1.15,2013-04-22 21:18:00,
2013-04-22 16:19:00,60.9,51.0,29.85,South,179,7.0,17.0,70,0.00,,,0.23,204,Wunderground v.1.15,2013-04-22 21:19:00,
2013-04-22 16:20:00,61.0,51.1,29.85,SSE,159,6.0,9.0,70,0.00,,,0.23,237,Wunderground v.1.15,2013-04-22 21:20:00,
2013-04-22 16:22:00,61.1,51.6,29.85,SSE,153,9.0,10.0,71,0.00,,,0.23,257,Wunderground v.1.15,2013-04-22 21:22:00,
2013-04-22 16:23:00,61.2,51.7,29.85,South,178,9.0,10.0,71,0.00,,,0.23,265,Wunderground v.1.15,2013-04-22 21:23:00,
2013-04-22 16:24:00,61.3,51.8,29.85,South,174,11.0,11.0,71,0.00,,,0.23,274,Wunderground v.1.15,2013-04-22 21:24:00,
2013-04-22 16:25:00,61.6,52.1,29.85,SSE,166,6.0,11.0,71,0.00,,,0.23,271,Wunderground v.1.15,2013-04-22 21:25:00,
2013-04-22 16:28:00,62.0,52.5,29.85,SSE,151,9.0,11.0,71,0.00,,,0.23,248,Wunderground v.1.15,2013-04-22 21:28:00,
2013-04-22 16:29:00,62.0,52.9,29.85,SE,144,7.0,11.0,72,0.00,,,0.23,234,Wunderground v.1.15,2013-04-22 21:29:00,
2013-04-22 16:30:00,62.0,52.9,29.85,SSE,148,11.0,11.0,72,0.00,,,0.23,218,Wunderground v.1.15,2013-04-22 21:30:00,
2013-04-22 16:35:00,62.2,51.5,29.84,SSE,147,8.0,12.0,68,0.00,,,0.23,193,Wunderground v.1.15,2013-04-22 21:35:00,
2013-04-22 16:36:00,62.2,51.5,29.84,SSE,150,11.0,12.0,68,0.00,,,0.23,193,Wunderground v.1.15,2013-04-22 21:36:00,
2013-04-22 16:37:00,62.2,51.9,29.84,SSE,152,7.0,12.0,69,0.00,,,0.23,216,Wunderground v.1.15,2013-04-22 21:37:00,
2013-04-22 16:39:00,62.2,52.3,29.84,SSE,157,10.0,12.0,70,0.00,,,0.23,223,Wunderground v.1.15,2013-04-22 21:39:00,
2013-04-22 16:40:00,62.2,51.9,29.84,SSE,167,6.0,9.0,69,0.00,,,0.23,213,Wunderground v.1.15,2013-04-22 21:40:00,
2013-04-22 16:42:00,62.3,52.4,29.84,SSE,162,6.0,9.0,70,0.00,,,0.23,213,Wunderground v.1.15,2013-04-22 21:42:00,
2013-04-22 16:43:00,62.4,52.1,29.84,SSE,159,5.0,9.0,69,0.00,,,0.23,207,Wunderground v.1.15,2013-04-22 21:43:00,
2013-04-22 16:44:00,62.4,52.1,29.84,SSE,163,5.0,9.0,69,0.00,,,0.23,216,Wunderground v.1.15,2013-04-22 21:44:00,
2013-04-22 16:48:00,62.5,52.6,29.84,SSE,161,5.0,9.0,70,0.00,,,0.23,190,Wunderground v.1.15,2013-04-22 21:48:00,
2013-04-22 16:49:00,62.5,52.2,29.84,SSE,165,5.0,9.0,69,0.00,,,0.23,139,Wunderground v.1.15,2013-04-22 21:49:00,
2013-04-22 16:50:00,62.5,52.2,29.84,SSE,159,4.0,9.0,69,0.00,,,0.23,113,Wunderground v.1.15,2013-04-22 21:50:00,
2013-04-22 16:54:00,62.3,52.8,29.84,South,178,4.0,7.0,71,0.00,,,0.23,40,Wunderground v.1.15,2013-04-22 21:54:00,
2013-04-22 16:55:00,62.3,53.5,29.84,South,178,4.0,7.0,73,0.00,,,0.23,35,Wunderground v.1.15,2013-04-22 21:55:00,
2013-04-22 16:56:00,62.2,53.1,29.84,South,173,7.0,7.0,72,0.00,,,0.23,35,Wunderground v.1.15,2013-04-22 21:56:00,
2013-04-22 16:57:00,62.1,52.6,29.84,South,184,7.0,7.0,71,0.00,,,0.23,26,Wunderground v.1.15,2013-04-22 21:57:00,
2013-04-22 16:59:00,62.0,51.7,29.84,South,184,8.0,8.0,69,0.00,,,0.23,21,Wunderground v.1.15,2013-04-22 21:59:00,
2013-04-22 17:01:00,61.9,52.4,29.84,South,188,8.0,8.0,71,0.00,,,0.23,18,Wunderground v.1.15,2013-04-22 22:01:00,
2013-04-22 17:03:00,61.6,52.1,29.84,SSW,201,9.0,9.0,71,0.00,,,0.23,18,Wunderground v.1.15,2013-04-22 22:03:00,
2013-04-22 17:06:00,61.4,52.3,29.85,SSW,198,7.0,11.0,72,0.00,,,0.23,18,Wunderground v.1.15,2013-04-22 22:06:00,
2013-04-22 17:07:00,61.1,52.7,29.84,South,177,13.0,13.0,74,0.00,,,0.23,21,Wunderground v.1.15,2013-04-22 22:07:00,
2013-04-22 17:08:00,61.0,52.7,29.84,SSW,195,8.0,13.0,74,0.00,,,0.23,25,Wunderground v.1.15,2013-04-22 22:08:00,
2013-04-22 17:11:00,60.8,51.3,29.84,SSW,197,7.0,13.0,71,0.00,,,0.23,30,Wunderground v.1.15,2013-04-22 22:11:00,
2013-04-22 17:12:00,60.6,51.5,29.84,SSW,195,7.0,10.0,72,0.00,,,0.23,26,Wunderground v.1.15,2013-04-22 22:12:00,
2013-04-22 17:13:00,60.4,51.3,29.84,South,188,9.0,10.0,72,0.00,,,0.23,25,Wunderground v.1.15,2013-04-22 22:13:00,
2013-04-22 17:16:00,60.3,50.5,29.84,SW,214,8.0,11.0,70,0.00,,,0.23,21,Wunderground v.1.15,2013-04-22 22:16:00,
2013-04-22 17:17:00,60.2,50.8,29.84,SSW,192,7.0,11.0,71,0.00,,,0.23,21,Wunderground v.1.15,2013-04-22 22:17:00,
2013-04-22 17:18:00,60.1,50.7,29.85,SSW,202,9.0,11.0,71,0.00,,,0.23,21,Wunderground v.1.15,2013-04-22 22:18:00,
2013-04-22 17:19:00,60.0,50.6,29.85,SSW,209,8.0,11.0,71,0.00,,,0.23,21,Wunderground v.1.15,2013-04-22 22:19:00,
2013-04-22 17:22:00,59.9,48.9,29.84,SSW,205,11.0,13.0,67,0.00,,,0.23,25,Wunderground v.1.15,2013-04-22 22:22:00,
2013-04-22 17:23:00,60.0,49.8,29.85,SSW,194,10.0,13.0,69,0.00,,,0.23,32,Wunderground v.1.15,2013-04-22 22:23:00,
2013-04-22 17:25:00,60.0,50.2,29.85,SSW,211,7.0,13.0,70,0.00,,,0.23,30,Wunderground v.1.15,2013-04-22 22:25:00,
2013-04-22 17:26:00,59.9,50.5,29.84,SSW,213,6.0,13.0,71,0.00,,,0.23,30,Wunderground v.1.15,2013-04-22 22:26:00,
2013-04-22 17:27:00,59.8,50.4,29.85,SSW,207,7.0,13.0,71,0.00,,,0.23,32,Wunderground v.1.15,2013-04-22 22:27:00,
2013-04-22 17:29:00,59.8,50.4,29.85,SW,218,7.0,13.0,71,0.00,,,0.23,30,Wunderground v.1.15,2013-04-22 22:29:00,
2013-04-22 17:31:00,59.7,50.3,29.85,SSW,197,8.0,13.0,71,0.00,,,0.23,25,Wunderground v.1.15,2013-04-22 22:31:00,
2013-04-22 17:32:00,59.6,50.2,29.85,SSW,207,11.0,11.0,71,0.00,,,0.23,23,Wunderground v.1.15,2013-04-22 22:32:00,
2013-04-22 17:33:00,59.6,50.2,29.85,SSW,196,7.0,11.0,71,0.00,,,0.23,23,Wunderground v.1.15,2013-04-22 22:33:00,
2013-04-22 17:36:00,59.2,50.5,29.85,South,182,7.0,13.0,73,0.00,,,0.24,23,Wunderground v.1.15,2013-04-22 22:36:00,
2013-04-22 17:37:00,59.0,50.4,29.85,SSW,194,8.0,13.0,73,0.00,,,0.24,23,Wunderground v.1.15,2013-04-22 22:37:00,
2013-04-22 17:38:00,58.9,49.9,29.85,SSW,192,8.0,13.0,72,0.00,,,0.24,25,Wunderground v.1.15,2013-04-22 22:38:00,
2013-04-22 17:40:00,58.8,49.8,29.85,South,175,9.0,13.0,72,0.00,,,0.24,28,Wunderground v.1.15,2013-04-22 22:40:00,
2013-04-22 17:42:00,58.7,50.1,29.85,South,180,6.0,9.0,73,0.00,,,0.24,32,Wunderground v.1.15,2013-04-22 22:42:00,
2013-04-22 17:43:00,58.6,50.3,29.85,South,172,10.0,10.0,74,0.00,,,0.24,33,Wunderground v.1.15,2013-04-22 22:43:00,
2013-04-22 17:44:00,58.6,50.3,29.85,South,178,8.0,10.0,74,0.00,,,0.24,33,Wunderground v.1.15,2013-04-22 22:44:00,
2013-04-22 17:46:00,58.5,50.2,29.85,South,172,7.0,10.0,74,0.00,,,0.24,39,Wunderground v.1.15,2013-04-22 22:46:00,
2013-04-22 17:47:00,58.5,49.5,29.85,South,176,7.0,10.0,72,0.00,,,0.24,42,Wunderground v.1.15,2013-04-22 22:47:00,
2013-04-22 17:48:00,58.5,49.9,29.85,South,190,6.0,10.0,73,0.00,,,0.24,44,Wunderground v.1.15,2013-04-22 22:48:00,
2013-04-22 17:49:00,58.5,49.9,29.86,SSW,192,6.0,10.0,73,0.00,,,0.24,46,Wunderground v.1.15,2013-04-22 22:49:00,
2013-04-22 17:51:00,58.5,50.2,29.86,SSW,196,6.0,7.0,74,0.00,,,0.24,49,Wunderground v.1.15,2013-04-22 22:51:00,
2013-04-22 17:52:00,58.4,50.1,29.86,SSW,198,11.0,11.0,74,0.00,,,0.24,49,Wunderground v.1.15,2013-04-22 22:52:00,
2013-04-22 17:54:00,58.4,49.8,29.87,SSW,203,17.0,22.0,73,0.00,,,0.24,46,Wunderground v.1.15,2013-04-22 22:54:00,
2013-04-22 17:56:00,58.4,49.0,29.88,SW,215,21.0,25.0,71,0.00,,,0.24,42,Wunderground v.1.15,2013-04-22 22:56:00,
2013-04-22 17:57:00,58.2,49.2,29.88,SSW,203,22.0,30.0,72,0.00,,,0.24,40,Wunderground v.1.15,2013-04-22 22:57:00,
2013-04-22 17:58:00,58.2,49.6,29.88,SSW,207,26.0,30.0,73,0.00,,,0.24,40,Wunderground v.1.15,2013-04-22 22:58:00,
2013-04-22 18:00:00,57.4,49.2,29.88,SW,215,17.0,18.0,74,0.00,,,0.24,42,Wunderground v.1.15,2013-04-22 23:00:00,
2013-04-22 18:01:00,57.3,49.1,29.89,SSW,206,16.0,18.0,74,0.00,,,0.24,44,Wunderground v.1.15,2013-04-22 23:01:00,
2013-04-22 18:02:00,56.9,49.1,29.88,SSW,205,26.0,26.0,75,0.00,,,0.25,46,Wunderground v.1.15,2013-04-22 23:02:00,
2013-04-22 18:03:00,56.6,49.1,29.89,SW,225,23.0,26.0,76,0.00,,,0.25,44,Wunderground v.1.15,2013-04-22 23:03:00,
2013-04-22 18:04:00,56.5,49.4,29.89,SW,221,17.0,26.0,77,0.00,,,0.25,42,Wunderground v.1.15,2013-04-22 23:04:00,
2013-04-22 18:07:00,55.9,49.1,29.89,SW,228,16.0,26.0,78,0.00,,,0.25,42,Wunderground v.1.15,2013-04-22 23:07:00,
2013-04-22 18:08:00,55.7,49.3,29.89,SSW,207,17.0,26.0,79,0.00,,,0.25,42,Wunderground v.1.15,2013-04-22 23:08:00,
2013-04-22 18:09:00,55.6,49.2,29.89,SW,220,11.0,26.0,79,0.00,,,0.25,42,Wunderground v.1.15,2013-04-22 23:09:00,
2013-04-22 18:10:00,55.5,49.4,29.89,SW,218,16.0,26.0,80,0.00,,,0.25,44,Wunderground v.1.15,2013-04-22 23:10:00,
2013-04-22 18:12:00,55.2,49.5,29.89,SW,217,19.0,23.0,81,0.00,,,0.25,47,Wunderground v.1.15,2013-04-22 23:12:00,
2013-04-22 18:13:00,55.1,49.4,29.89,SSW,213,10.0,23.0,81,0.00,,,0.25,47,Wunderground v.1.15,2013-04-22 23:13:00,
2013-04-22 18:14:00,54.9,49.5,29.89,SW,217,16.0,23.0,82,0.00,,,0.25,46,Wunderground v.1.15,2013-04-22 23:14:00,
2013-04-22 18:15:00,54.9,49.5,29.89,SW,227,13.0,23.0,82,0.00,,,0.25,46,Wunderground v.1.15,2013-04-22 23:15:00,
2013-04-22 18:17:00,54.6,49.5,29.89,SW,217,15.0,23.0,83,0.00,,,0.25,47,Wunderground v.1.15,2013-04-22 23:17:00,
2013-04-22 18:18:00,54.6,49.9,29.90,SW,231,15.0,23.0,84,0.04,,,0.26,49,Wunderground v.1.15,2013-04-22 23:18:00,
2013-04-22 18:20:00,54.5,49.8,29.89,SW,228,9.0,23.0,84,0.04,,,0.26,46,Wunderground v.1.15,2013-04-22 23:20:00,
2013-04-22 18:22:00,54.4,50.0,29.90,SW,227,11.0,14.0,85,0.04,,,0.26,35,Wunderground v.1.15,2013-04-22 23:22:00,
2013-04-22 18:24:00,54.2,49.8,29.90,SW,233,9.0,14.0,85,0.04,,,0.26,30,Wunderground v.1.15,2013-04-22 23:24:00,
2013-04-22 18:25:00,54.2,49.8,29.89,SW,225,11.0,14.0,85,0.04,,,0.26,30,Wunderground v.1.15,2013-04-22 23:25:00,
2013-04-22 18:26:00,54.1,49.7,29.90,SW,229,11.0,14.0,85,0.04,,,0.26,28,Wunderground v.1.15,2013-04-22 23:26:00,
2013-04-22 18:28:00,54.1,50.0,29.90,WSW,246,10.0,14.0,86,0.04,,,0.26,26,Wunderground v.1.15,2013-04-22 23:28:00,
2013-04-22 18:30:00,54.1,50.0,29.89,SW,229,7.0,14.0,86,0.04,,,0.26,25,Wunderground v.1.15,2013-04-22 23:30:00,
2013-04-22 18:31:00,54.0,49.9,29.90,WSW,238,11.0,13.0,86,0.04,,,0.26,25,Wunderground v.1.15,2013-04-22 23:31:00,
2013-04-22 18:33:00,54.0,50.2,29.90,SW,231,14.0,14.0,87,0.04,,,0.26,25,Wunderground v.1.15,2013-04-22 23:33:00,
2013-04-22 18:35:00,53.9,50.1,29.90,SW,227,10.0,14.0,87,0.00,,,0.26,26,Wunderground v.1.15,2013-04-22 23:35:00,
2013-04-22 18:37:00,53.9,50.1,29.90,SW,225,11.0,14.0,87,0.00,,,0.26,25,Wunderground v.1.15,2013-04-22 23:37:00,
2013-04-22 18:39:00,53.9,50.1,29.90,SW,225,8.0,14.0,87,0.00,,,0.26,21,Wunderground v.1.15,2013-04-22 23:39:00,
2013-04-22 18:40:00,53.9,50.4,29.90,SW,223,7.0,10.0,88,0.00,,,0.26,18,Wunderground v.1.15,2013-04-22 23:40:00,
2013-04-22 18:41:00,53.8,50.3,29.90,SW,229,6.0,10.0,88,0.00,,,0.26,14,Wunderground v.1.15,2013-04-22 23:41:00,
2013-04-22 18:42:00,53.8,50.3,29.90,SW,229,5.0,10.0,88,0.00,,,0.26,14,Wunderground v.1.15,2013-04-22 23:42:00,
2013-04-22 18:44:00,53.7,50.5,29.90,SW,232,8.0,10.0,89,0.00,,,0.27,16,Wunderground v.1.15,2013-04-22 23:44:00,
2013-04-22 18:45:00,53.6,50.4,29.90,SW,229,5.0,10.0,89,0.00,,,0.27,18,Wunderground v.1.15,2013-04-22 23:45:00,
2013-04-22 18:48:00,53.4,50.5,29.90,SW,224,7.0,10.0,90,0.00,,,0.27,19,Wunderground v.1.15,2013-04-22 23:48:00,
2013-04-22 18:49:00,53.4,50.5,29.90,SW,219,7.0,10.0,90,0.00,,,0.27,19,Wunderground v.1.15,2013-04-22 23:49:00,
2013-04-22 18:51:00,53.3,50.4,29.90,SW,227,6.0,9.0,90,0.00,,,0.27,18,Wunderground v.1.15,2013-04-22 23:51:00,
2013-04-22 18:53:00,53.3,50.4,29.90,SW,226,7.0,9.0,90,0.00,,,0.27,18,Wunderground v.1.15,2013-04-22 23:53:00,
2013-04-22 18:55:00,53.2,50.6,29.90,SW,217,6.0,9.0,91,0.00,,,0.27,21,Wunderground v.1.15,2013-04-22 23:55:00,
2013-04-22 18:57:00,53.1,50.5,29.90,SW,216,4.0,9.0,91,0.00,,,0.27,19,Wunderground v.1.15,2013-04-22 23:57:00,
2013-04-22 18:58:00,53.1,50.5,29.90,SW,216,5.0,9.0,91,0.00,,,0.27,18,Wunderground v.1.15,2013-04-22 23:58:00,
2013-04-22 19:01:00,53.0,50.4,29.90,SW,217,5.0,7.0,91,0.04,,,0.28,12,Wunderground v.1.15,2013-04-23 00:01:00,
2013-04-22 19:03:00,53.0,50.7,29.90,SW,221,6.0,7.0,92,0.04,,,0.28,12,Wunderground v.1.15,2013-04-23 00:03:00,
2013-04-22 19:04:00,53.0,50.7,29.90,SW,223,8.0,8.0,92,0.04,,,0.28,12,Wunderground v.1.15,2013-04-23 00:04:00,
2013-04-22 19:05:00,52.9,50.6,29.90,SW,220,7.0,8.0,92,0.09,,,0.28,12,Wunderground v.1.15,2013-04-23 00:05:00,
2013-04-22 19:06:00,52.9,50.6,29.90,SW,234,7.0,8.0,92,0.09,,,0.29,12,Wunderground v.1.15,2013-04-23 00:06:00,
2013-04-22 19:07:00,52.9,50.6,29.90,SW,225,5.0,8.0,92,0.09,,,0.29,11,Wunderground v.1.15,2013-04-23 00:07:00,
2013-04-22 19:09:00,52.8,50.5,29.90,SW,231,6.0,8.0,92,0.09,,,0.29,11,Wunderground v.1.15,2013-04-23 00:09:00,
2013-04-22 19:11:00,52.8,50.5,29.90,WSW,252,6.0,7.0,92,0.09,,,0.29,9,Wunderground v.1.15,2013-04-23 00:11:00,
2013-04-22 19:14:00,52.8,50.5,29.91,WNW,297,14.0,15.0,92,0.10,,,0.30,0,Wunderground v.1.15,2013-04-23 00:14:00,
2013-04-22 19:15:00,52.4,49.8,29.92,WNW,284,17.0,18.0,91,0.10,,,0.30,0,Wunderground v.1.15,2013-04-23 00:15:00,
2013-04-22 19:17:00,51.4,48.6,29.91,NW,316,13.0,22.0,90,0.10,,,0.30,7,Wunderground v.1.15,2013-04-23 00:17:00,
2013-04-22 19:19:00,50.8,48.0,29.91,NW,304,10.0,22.0,90,0.08,,,0.30,11,Wunderground v.1.15,2013-04-23 00:19:00,
2013-04-22 19:20:00,50.5,47.7,29.92,NW,306,12.0,13.0,90,0.07,,,0.31,9,Wunderground v.1.15,2013-04-23 00:20:00,
2013-04-22 19:21:00,50.4,47.6,29.92,WNW,289,12.0,13.0,90,0.07,,,0.31,9,Wunderground v.1.15,2013-04-23 00:21:00,
2013-04-22 19:24:00,49.4,46.6,29.92,WNW,300,12.0,17.0,90,0.07,,,0.31,9,Wunderground v.1.15,2013-04-23 00:24:00,
2013-04-22 19:25:00,49.4,46.6,29.92,WNW,300,12.0,17.0,90,0.07,,,0.31,9,Wunderground v.1.15,2013-04-23 00:25:00,
2013-04-22 19:26:00,49.1,46.6,29.92,WNW,295,13.0,17.0,91,0.07,,,0.31,9,Wunderground v.1.15,2013-04-23 00:26:00,
2013-04-22 19:27:00,48.7,46.2,29.92,WNW,300,14.0,17.0,91,0.07,,,0.31,9,Wunderground v.1.15,2013-04-23 00:27:00,
2013-04-22 19:30:00,48.4,45.9,29.92,WNW,290,11.0,17.0,91,0.06,,,0.31,9,Wunderground v.1.15,2013-04-23 00:30:00,
2013-04-22 19:31:00,48.2,46.0,29.92,WNW,290,15.0,16.0,92,0.05,,,0.31,9,Wunderground v.1.15,2013-04-23 00:31:00,
2013-04-22 19:33:00,47.9,45.7,29.93,WNW,294,12.0,16.0,92,0.04,,,0.31,9,Wunderground v.1.15,2013-04-23 00:33:00,
2013-04-22 19:35:00,47.7,45.5,29.93,WNW,297,10.0,16.0,92,0.04,,,0.31,7,Wunderground v.1.15,2013-04-23 00:35:00,
2013-04-22 19:37:00,47.5,45.3,29.93,WNW,300,11.0,16.0,92,0.00,,,0.31,7,Wunderground v.1.15,2013-04-23 00:37:00,
2013-04-22 19:38:00,47.4,45.5,29.93,WNW,286,10.0,16.0,93,0.00,,,0.32,5,Wunderground v.1.15,2013-04-23 00:38:00,
2013-04-22 19:39:00,47.4,45.5,29.93,WNW,291,12.0,16.0,93,0.00,,,0.32,5,Wunderground v.1.15,2013-04-23 00:39:00,
2013-04-22 19:41:00,47.1,45.2,29.94,WNW,294,12.0,15.0,93,0.00,,,0.32,0,Wunderground v.1.15,2013-04-23 00:41:00,
2013-04-22 19:43:00,46.9,45.0,29.94,WNW,288,13.0,17.0,93,0.00,,,0.32,0,Wunderground v.1.15,2013-04-23 00:43:00,
2013-04-22 19:44:00,46.7,44.8,29.94,WNW,288,15.0,17.0,93,0.00,,,0.32,5,Wunderground v.1.15,2013-04-23 00:44:00,
2013-04-22 19:45:00,46.6,44.7,29.94,WNW,296,16.0,17.0,93,0.00,,,0.32,5,Wunderground v.1.15,2013-04-23 00:45:00,
2013-04-22 19:46:00,46.3,44.4,29.94,WNW,295,17.0,17.0,93,0.00,,,0.32,5,Wunderground v.1.15,2013-04-23 00:46:00,
2013-04-22 19:48:00,46.1,44.2,29.94,NW,304,18.0,19.0,93,0.00,,,0.32,5,Wunderground v.1.15,2013-04-23 00:48:00,
2013-04-22 19:49:00,45.9,44.0,29.94,WNW,295,12.0,19.0,93,0.00,,,0.32,0,Wunderground v.1.15,2013-04-23 00:49:00,
2013-04-22 19:50:00,45.9,44.0,29.94,WNW,294,15.0,19.0,93,0.00,,,0.32,0,Wunderground v.1.15,2013-04-23 00:50:00,
2013-04-22 19:52:00,45.5,43.6,29.95,WNW,296,14.0,18.0,93,0.00,,,0.32,0,Wunderground v.1.15,2013-04-23 00:52:00,
2013-04-22 19:54:00,45.2,43.3,29.95,WNW,298,15.0,19.0,93,0.00,,,0.32,0,Wunderground v.1.15,2013-04-23 00:54:00,
2013-04-22 19:55:00,45.1,43.2,29.95,WNW,300,15.0,19.0,93,0.00,,,0.32,0,Wunderground v.1.15,2013-04-23 00:55:00,
2013-04-22 19:57:00,44.7,42.8,29.95,WNW,294,14.0,19.0,93,0.00,,,0.32,0,Wunderground v.1.15,2013-04-23 00:57:00,
2013-04-22 19:58:00,44.6,42.7,29.95,WNW,290,16.0,19.0,93,0.00,,,0.33,0,Wunderground v.1.15,2013-04-23 00:58:00,
2013-04-22 20:00:00,44.4,42.5,29.96,WNW,295,13.0,17.0,93,0.00,,,0.33,0,Wunderground v.1.15,2013-04-23 01:00:00,
2013-04-22 20:01:00,44.3,42.4,29.96,WNW,292,15.0,17.0,93,0.00,,,0.33,0,Wunderground v.1.15,2013-04-23 01:01:00,
2013-04-22 20:03:00,44.0,42.1,29.96,WNW,298,16.0,22.0,93,0.00,,,0.33,0,Wunderground v.1.15,2013-04-23 01:03:00,
2013-04-22 20:04:00,44.0,42.1,29.97,WNW,298,13.0,22.0,93,0.00,,,0.33,0,Wunderground v.1.15,2013-04-23 01:04:00,
2013-04-22 20:06:00,43.8,41.9,29.97,WNW,297,18.0,22.0,93,0.00,,,0.33,0,Wunderground v.1.15,2013-04-23 01:06:00,
2013-04-22 20:07:00,43.6,41.7,29.97,WNW,302,17.0,22.0,93,0.00,,,0.33,0,Wunderground v.1.15,2013-04-23 01:07:00,
2013-04-22 20:08:00,43.5,41.6,29.96,WNW,301,16.0,22.0,93,0.00,,,0.33,0,Wunderground v.1.15,2013-04-23 01:08:00,
2013-04-22 20:09:00,43.4,41.5,29.96,NW,311,16.0,22.0,93,0.00,,,0.33,0,Wunderground v.1.15,2013-04-23 01:09:00,
2013-04-22 20:11:00,43.3,41.4,29.97,WNW,296,14.0,18.0,93,0.00,,,0.33,0,Wunderground v.1.15,2013-04-23 01:11:00,
2013-04-22 20:12:00,43.1,41.2,29.97,WNW,298,13.0,22.0,93,0.00,,,0.33,0,Wunderground v.1.15,2013-04-23 01:12:00,
2013-04-22 20:13:00,43.0,41.1,29.97,WNW,299,14.0,22.0,93,0.00,,,0.33,0,Wunderground v.1.15,2013-04-23 01:13:00,
2013-04-22 20:14:00,43.0,41.1,29.97,NW,313,17.0,22.0,93,0.00,,,0.33,0,Wunderground v.1.15,2013-04-23 01:14:00,
2013-04-22 20:15:00,42.9,41.0,29.97,WNW,300,16.0,22.0,93,0.00,,,0.33,0,Wunderground v.1.15,2013-04-23 01:15:00,
2013-04-22 20:17:00,42.7,40.8,29.97,NW,312,12.0,22.0,93,0.00,,,0.33,0,Wunderground v.1.15,2013-04-23 01:17:00,
2013-04-22 20:18:00,42.7,40.8,29.97,NW,306,13.0,22.0,93,0.00,,,0.33,0,Wunderground v.1.15,2013-04-23 01:18:00,
2013-04-22 20:19:00,42.7,40.8,29.97,NW,306,12.0,22.0,93,0.00,,,0.33,0,Wunderground v.1.15,2013-04-23 01:19:00,
2013-04-22 20:20:00,42.6,40.7,29.97,NW,315,15.0,22.0,93,0.00,,,0.33,0,Wunderground v.1.15,2013-04-23 01:20:00,
2013-04-22 20:22:00,42.5,40.9,29.97,NW,324,13.0,17.0,94,0.00,,,0.33,0,Wunderground v.1.15,2013-04-23 01:22:00,
2013-04-22 20:23:00,42.5,40.9,29.97,NNW,329,14.0,17.0,94,0.00,,,0.33,0,Wunderground v.1.15,2013-04-23 01:23:00,
2013-04-22 20:25:00,42.4,40.5,29.98,NW,323,9.0,17.0,93,0.00,,,0.33,0,Wunderground v.1.15,2013-04-23 01:25:00,
2013-04-22 20:26:00,42.3,40.4,29.98,NNW,329,9.0,17.0,93,0.00,,,0.33,0,Wunderground v.1.15,2013-04-23 01:26:00,
2013-04-22 20:27:00,42.2,40.6,29.98,NW,304,14.0,17.0,94,0.00,,,0.33,0,Wunderground v.1.15,2013-04-23 01:27:00,
2013-04-22 20:28:00,42.2,40.3,29.98,NW,313,16.0,17.0,93,0.00,,,0.33,0,Wunderground v.1.15,2013-04-23 01:28:00,
2013-04-22 20:30:00,42.0,40.1,29.98,NW,319,12.0,13.0,93,0.00,,,0.33,0,Wunderground v.1.15,2013-04-23 01:30:00,
2013-04-22 20:32:00,42.0,40.1,29.98,NW,317,13.0,15.0,93,0.00,,,0.33,0,Wunderground v.1.15,2013-04-23 01:32:00,
2013-04-22 20:34:00,41.9,40.0,29.98,NW,319,5.0,15.0,93,0.00,,,0.33,0,Wunderground v.1.15,2013-04-23 01:34:00,
2013-04-22 20:35:00,41.8,39.9,29.98,NNW,328,4.0,15.0,93,0.00,,,0.33,0,Wunderground v.1.15,2013-04-23 01:35:00,
2013-04-22 20:36:00,41.8,39.9,29.98,North,349,5.0,15.0,93,0.00,,,0.33,0,Wunderground v.1.15,2013-04-23 01:36:00,
2013-04-22 20:39:00,41.8,40.2,29.98,NNW,333,5.0,15.0,94,0.00,,,0.33,0,Wunderground v.1.15,2013-04-23 01:39:00,
2013-04-22 20:41:00,41.7,40.1,29.98,NW,323,6.0,14.0,94,0.00,,,0.33,0,Wunderground v.1.15,2013-04-23 01:41:00,
2013-04-22 20:44:00,41.4,39.5,29.99,NNW,327,10.0,14.0,93,0.00,,,0.33,0,Wunderground v.1.15,2013-04-23 01:44:00,
2013-04-22 20:45:00,41.3,39.4,29.99,NNW,329,8.0,14.0,93,0.00,,,0.33,0,Wunderground v.1.15,2013-04-23 01:45:00,
2013-04-22 20:46:00,41.2,39.3,29.99,NW,322,7.0,14.0,93,0.00,,,0.33,0,Wunderground v.1.15,2013-04-23 01:46:00,
2013-04-22 20:47:00,41.2,39.3,29.99,NW,323,7.0,14.0,93,0.00,,,0.33,0,Wunderground v.1.15,2013-04-23 01:47:00,
2013-04-22 20:49:00,41.0,39.1,29.99,NNW,335,9.0,14.0,93,0.00,,,0.34,0,Wunderground v.1.15,2013-04-23 01:49:00,
2013-04-22 20:51:00,40.9,39.0,29.99,NNW,329,6.0,11.0,93,0.00,,,0.34,0,Wunderground v.1.15,2013-04-23 01:51:00,
2013-04-22 20:52:00,40.9,39.0,29.99,NW,312,11.0,11.0,93,0.00,,,0.34,0,Wunderground v.1.15,2013-04-23 01:52:00,
2013-04-22 20:56:00,40.7,38.8,30.00,NW,318,10.0,14.0,93,0.00,,,0.34,0,Wunderground v.1.15,2013-04-23 01:56:00,
2013-04-22 20:57:00,40.6,38.7,30.00,NNW,330,5.0,14.0,93,0.00,,,0.34,0,Wunderground v.1.15,2013-04-23 01:57:00,
2013-04-22 20:58:00,40.6,38.7,30.00,NNW,327,5.0,14.0,93,0.00,,,0.34,0,Wunderground v.1.15,2013-04-23 01:58:00,
2013-04-22 21:02:00,40.4,38.5,30.00,NW,309,13.0,13.0,93,0.00,,,0.34,0,Wunderground v.1.15,2013-04-23 02:02:00,
2013-04-22 21:03:00,40.4,38.5,30.00,NW,320,15.0,15.0,93,0.00,,,0.34,0,Wunderground v.1.15,2013-04-23 02:03:00,
2013-04-22 21:04:00,40.3,38.4,30.00,NW,317,8.0,15.0,93,0.00,,,0.34,0,Wunderground v.1.15,2013-04-23 02:04:00,
2013-04-22 21:05:00,40.2,38.3,30.00,NW,308,10.0,15.0,93,0.00,,,0.34,0,Wunderground v.1.15,2013-04-23 02:05:00,
2013-04-22 21:08:00,40.1,38.2,30.00,NW,319,12.0,15.0,93,0.00,,,0.34,0,Wunderground v.1.15,2013-04-23 02:08:00,
2013-04-22 21:10:00,40.0,38.1,30.01,NW,318,12.0,12.0,93,0.00,,,0.34,0,Wunderground v.1.15,2013-04-23 02:10:00,
2013-04-22 21:11:00,40.0,38.1,30.01,NW,314,13.0,13.0,93,0.00,,,0.34,0,Wunderground v.1.15,2013-04-23 02:11:00,
2013-04-22 21:12:00,39.9,38.0,30.01,NW,323,12.0,15.0,93,0.00,,,0.34,0,Wunderground v.1.15,2013-04-23 02:12:00,
2013-04-22 21:14:00,39.8,37.9,30.01,NW,308,11.0,15.0,93,0.00,,,0.34,0,Wunderground v.1.15,2013-04-23 02:14:00,
2013-04-22 21:17:00,39.7,37.8,30.01,NW,313,9.0,15.0,93,0.00,,,0.34,0,Wunderground v.1.15,2013-04-23 02:17:00,
2013-04-22 21:19:00,39.7,37.8,30.01,NNW,328,6.0,15.0,93,0.00,,,0.35,0,Wunderground v.1.15,2013-04-23 02:19:00,
2013-04-22 21:22:00,39.6,37.7,30.01,NW,326,5.0,12.0,93,0.00,,,0.35,0,Wunderground v.1.15,2013-04-23 02:22:00,
2013-04-22 21:24:00,39.6,38.0,30.01,NW,321,11.0,12.0,94,0.00,,,0.35,0,Wunderground v.1.15,2013-04-23 02:24:00,
2013-04-22 21:25:00,39.5,37.9,30.01,North,355,5.0,12.0,94,0.00,,,0.35,0,Wunderground v.1.15,2013-04-23 02:25:00,
2013-04-22 21:28:00,39.3,37.4,30.01,NNW,330,4.0,12.0,93,0.00,,,0.35,0,Wunderground v.1.15,2013-04-23 02:28:00,
2013-04-22 21:30:00,39.3,37.4,30.02,NNW,329,6.0,12.0,93,0.00,,,0.35,0,Wunderground v.1.15,2013-04-23 02:30:00,
2013-04-22 21:31:00,39.2,37.3,30.02,NW,313,15.0,15.0,93,0.00,,,0.35,0,Wunderground v.1.15,2013-04-23 02:31:00,
2013-04-22 21:33:00,39.1,37.2,30.02,NW,317,10.0,15.0,93,0.00,,,0.35,0,Wunderground v.1.15,2013-04-23 02:33:00,
2013-04-22 21:35:00,39.1,37.2,30.02,NW,316,11.0,15.0,93,0.00,,,0.35,0,Wunderground v.1.15,2013-04-23 02:35:00,
2013-04-22 21:36:00,39.1,37.5,30.02,NW,322,9.0,15.0,94,0.00,,,0.35,0,Wunderground v.1.15,2013-04-23 02:36:00,
2013-04-22 21:37:00,39.0,37.1,30.02,NNW,330,6.0,15.0,93,0.00,,,0.35,0,Wunderground v.1.15,2013-04-23 02:37:00,
2013-04-22 21:39:00,39.0,37.4,30.02,NNW,333,7.0,15.0,94,0.00,,,0.35,0,Wunderground v.1.15,2013-04-23 02:39:00,
2013-04-22 21:41:00,38.9,37.0,30.02,NW,319,7.0,9.0,93,0.00,,,0.35,0,Wunderground v.1.15,2013-04-23 02:41:00,
2013-04-22 21:42:00,39.0,37.1,30.02,NW,316,11.0,11.0,93,0.00,,,0.35,0,Wunderground v.1.15,2013-04-23 02:42:00,
2013-04-22 21:43:00,38.9,37.0,30.02,NNW,329,10.0,11.0,93,0.00,,,0.35,0,Wunderground v.1.15,2013-04-23 02:43:00,
2013-04-22 21:44:00,39.0,37.4,30.03,NW,313,13.0,13.0,94,0.00,,,0.35,0,Wunderground v.1.15,2013-04-23 02:44:00,
2013-04-22 21:46:00,38.9,37.3,30.03,NW,324,12.0,14.0,94,0.00,,,0.35,0,Wunderground v.1.15,2013-04-23 02:46:00,
2013-04-22 21:47:00,38.9,37.0,30.03,NW,322,14.0,15.0,93,0.00,,,0.35,0,Wunderground v.1.15,2013-04-23 02:47:00,
2013-04-22 21:49:00,38.8,36.9,30.03,NW,315,10.0,16.0,93,0.00,,,0.35,0,Wunderground v.1.15,2013-04-23 02:49:00,
2013-04-22 21:52:00,38.9,37.3,30.03,NW,314,12.0,14.0,94,0.00,,,0.35,0,Wunderground v.1.15,2013-04-23 02:52:00,
2013-04-22 21:55:00,38.9,37.3,30.03,NW,322,15.0,17.0,94,0.00,,,0.35,0,Wunderground v.1.15,2013-04-23 02:55:00,
2013-04-22 21:57:00,38.8,37.2,30.03,NNW,327,11.0,18.0,94,0.00,,,0.35,0,Wunderground v.1.15,2013-04-23 02:57:00,
2013-04-22 21:58:00,38.7,36.9,30.03,NW,313,17.0,19.0,93,0.00,,,0.35,0,Wunderground v.1.15,2013-04-23 02:58:00,
2013-04-22 22:00:00,38.6,36.8,30.03,NW,315,17.0,17.0,93,0.00,,,0.35,0,Wunderground v.1.15,2013-04-23 03:00:00,
2013-04-22 22:03:00,38.5,36.7,30.03,NW,310,13.0,19.0,93,0.00,,,0.35,0,Wunderground v.1.15,2013-04-23 03:03:00,
2013-04-22 22:05:00,38.4,36.8,30.04,NW,324,13.0,19.0,94,0.00,,,0.35,0,Wunderground v.1.15,2013-04-23 03:05:00,
2013-04-22 22:06:00,38.5,36.9,30.04,NW,324,16.0,19.0,94,0.00,,,0.35,0,Wunderground v.1.15,2013-04-23 03:06:00,
2013-04-22 22:09:00,38.4,36.8,30.04,NW,319,12.0,19.0,94,0.00,,,0.35,0,Wunderground v.1.15,2013-04-23 03:09:00,
2013-04-22 22:11:00,38.4,36.6,30.04,NW,319,7.0,15.0,93,0.00,,,0.35,0,Wunderground v.1.15,2013-04-23 03:11:00,
2013-04-22 22:14:00,38.3,36.5,30.04,NNW,327,13.0,20.0,93,0.00,,,0.35,0,Wunderground v.1.15,2013-04-23 03:14:00,
2013-04-22 22:15:00,38.2,36.4,30.04,NW,322,16.0,20.0,93,0.00,,,0.35,0,Wunderground v.1.15,2013-04-23 03:15:00,
2013-04-22 22:17:00,38.2,36.4,30.04,NW,322,15.0,20.0,93,0.00,,,0.35,0,Wunderground v.1.15,2013-04-23 03:17:00,
2013-04-22 22:19:00,38.2,36.4,30.04,NW,319,15.0,20.0,93,0.00,,,0.35,0,Wunderground v.1.15,2013-04-23 03:19:00,
2013-04-22 22:21:00,38.1,36.3,30.04,NW,312,17.0,17.0,93,0.00,,,0.35,0,Wunderground v.1.15,2013-04-23 03:21:00,
2013-04-22 22:23:00,38.0,36.2,30.04,NW,317,13.0,17.0,93,0.00,,,0.35,0,Wunderground v.1.15,2013-04-23 03:23:00,
2013-04-22 22:24:00,38.0,36.2,30.04,NW,317,12.0,17.0,93,0.00,,,0.35,0,Wunderground v.1.15,2013-04-23 03:24:00,
2013-04-22 22:26:00,37.9,36.1,30.04,NW,317,14.0,18.0,93,0.00,,,0.35,0,Wunderground v.1.15,2013-04-23 03:26:00,
2013-04-22 22:29:00,37.9,36.1,30.05,NW,310,15.0,18.0,93,0.00,,,0.35,0,Wunderground v.1.15,2013-04-23 03:29:00,
2013-04-22 22:31:00,37.9,36.3,30.05,NW,318,13.0,14.0,94,0.00,,,0.35,0,Wunderground v.1.15,2013-04-23 03:31:00,
2013-04-22 22:34:00,37.9,36.3,30.05,NW,313,17.0,17.0,94,0.00,,,0.35,0,Wunderground v.1.15,2013-04-23 03:34:00,
2013-04-22 22:35:00,37.8,36.2,30.05,NNW,328,16.0,18.0,94,0.00,,,0.35,0,Wunderground v.1.15,2013-04-23 03:35:00,
2013-04-22 22:36:00,37.8,36.2,30.05,NW,322,10.0,18.0,94,0.00,,,0.35,0,Wunderground v.1.15,2013-04-23 03:36:00,
2013-04-22 22:39:00,37.7,36.1,30.05,NW,320,17.0,18.0,94,0.00,,,0.35,0,Wunderground v.1.15,2013-04-23 03:39:00,
2013-04-22 22:40:00,37.6,36.0,30.05,NW,320,15.0,16.0,94,0.00,,,0.35,0,Wunderground v.1.15,2013-04-23 03:40:00,
2013-04-22 22:42:00,37.5,35.9,30.04,NW,323,14.0,16.0,94,0.00,,,0.35,0,Wunderground v.1.15,2013-04-23 03:42:00,
2013-04-22 22:44:00,37.4,35.8,30.04,NW,320,11.0,17.0,94,0.00,,,0.35,0,Wunderground v.1.15,2013-04-23 03:44:00,
2013-04-22 22:45:00,37.5,35.9,30.04,NNW,338,10.0,17.0,94,0.00,,,0.35,0,Wunderground v.1.15,2013-04-23 03:45:00,
2013-04-22 22:46:00,37.4,35.8,30.04,NW,318,14.0,17.0,94,0.00,,,0.35,0,Wunderground v.1.15,2013-04-23 03:46:00,
2013-04-22 22:48:00,37.4,35.8,30.04,NW,308,10.0,17.0,94,0.00,,,0.35,0,Wunderground v.1.15,2013-04-23 03:48:00,
2013-04-22 22:50:00,37.4,35.8,30.04,NW,317,7.0,12.0,94,0.00,,,0.35,0,Wunderground v.1.15,2013-04-23 03:50:00,
2013-04-22 22:51:00,37.4,35.8,30.04,NNW,330,8.0,12.0,94,0.00,,,0.35,0,Wunderground v.1.15,2013-04-23 03:51:00,
2013-04-22 22:52:00,37.4,35.8,30.03,NNW,329,9.0,12.0,94,0.00,,,0.35,0,Wunderground v.1.15,2013-04-23 03:52:00,
2013-04-22 22:54:00,37.4,35.8,30.04,NW,325,10.0,13.0,94,0.00,,,0.35,0,Wunderground v.1.15,2013-04-23 03:54:00,
2013-04-22 22:56:00,37.4,35.8,30.04,NW,309,9.0,13.0,94,0.00,,,0.35,0,Wunderground v.1.15,2013-04-23 03:56:00,
2013-04-22 22:57:00,37.4,35.8,30.04,NNW,336,5.0,13.0,94,0.00,,,0.35,0,Wunderground v.1.15,2013-04-23 03:57:00,
2013-04-22 23:00:00,37.3,35.7,30.03,North,355,7.0,13.0,94,0.00,,,0.35,0,Wunderground v.1.15,2013-04-23 04:00:00,
2013-04-22 23:01:00,37.3,35.7,30.03,NW,305,9.0,9.0,94,0.00,,,0.35,0,Wunderground v.1.15,2013-04-23 04:01:00,
2013-04-22 23:02:00,37.3,35.7,30.03,North,5,5.0,18.0,94,0.00,,,0.35,0,Wunderground v.1.15,2013-04-23 04:02:00,
2013-04-22 23:03:00,37.1,35.5,30.03,NNW,342,5.0,18.0,94,0.00,,,0.35,0,Wunderground v.1.15,2013-04-23 04:03:00,
2013-04-22 23:06:00,37.0,35.4,30.03,NW,319,10.0,18.0,94,0.00,,,0.35,0,Wunderground v.1.15,2013-04-23 04:06:00,
2013-04-22 23:07:00,37.0,35.4,30.03,NNW,338,6.0,18.0,94,0.00,,,0.35,0,Wunderground v.1.15,2013-04-23 04:07:00,
2013-04-22 23:08:00,37.0,35.4,30.03,NNE,32,6.0,18.0,94,0.00,,,0.35,0,Wunderground v.1.15,2013-04-23 04:08:00,
2013-04-22 23:09:00,36.9,35.3,30.03,North,5,2.0,18.0,94,0.00,,,0.35,0,Wunderground v.1.15,2013-04-23 04:09:00,
2013-04-22 23:11:00,36.8,35.2,30.03,NNW,330,13.0,13.0,94,0.00,,,0.35,0,Wunderground v.1.15,2013-04-23 04:11:00,
2013-04-22 23:13:00,36.7,35.1,30.03,NNW,333,7.0,13.0,94,0.00,,,0.35,0,Wunderground v.1.15,2013-04-23 04:13:00,
2013-04-22 23:14:00,36.7,35.1,30.03,WNW,300,4.0,13.0,94,0.00,,,0.35,0,Wunderground v.1.15,2013-04-23 04:14:00,
2013-04-22 23:16:00,36.7,35.1,30.02,NW,323,10.0,14.0,94,0.00,,,0.35,0,Wunderground v.1.15,2013-04-23 04:16:00,
2013-04-22 23:17:00,36.7,35.1,30.02,NNW,344,3.0,16.0,94,0.00,,,0.35,0,Wunderground v.1.15,2013-04-23 04:17:00,
2013-04-22 23:19:00,36.6,35.0,30.02,North,349,2.0,16.0,94,0.00,,,0.35,0,Wunderground v.1.15,2013-04-23 04:19:00,
2013-04-22 23:20:00,36.6,35.0,30.01,NNE,20,2.0,16.0,94,0.00,,,0.35,0,Wunderground v.1.15,2013-04-23 04:20:00,
2013-04-22 23:21:00,36.6,35.0,30.01,NNW,346,2.0,7.0,94,0.00,,,0.35,0,Wunderground v.1.15,2013-04-23 04:21:00,
2013-04-22 23:23:00,36.5,34.9,30.02,NNW,342,3.0,9.0,94,0.00,,,0.35,0,Wunderground v.1.15,2013-04-23 04:23:00,
2013-04-22 23:24:00,36.4,34.8,30.02,WNW,301,9.0,9.0,94,0.00,,,0.35,0,Wunderground v.1.15,2013-04-23 04:24:00,
2013-04-22 23:25:00,36.4,34.8,30.01,WNW,294,4.0,9.0,94,0.00,,,0.35,0,Wunderground v.1.15,2013-04-23 04:25:00,
2013-04-22 23:26:00,36.4,34.8,30.01,North,5,6.0,11.0,94,0.00,,,0.35,0,Wunderground v.1.15,2013-04-23 04:26:00,
2013-04-22 23:27:00,36.4,34.8,30.01,NNW,338,8.0,11.0,94,0.00,,,0.35,0,Wunderground v.1.15,2013-04-23 04:27:00,
2013-04-22 23:28:00,36.3,34.7,30.01,NNW,346,12.0,14.0,94,0.00,,,0.35,0,Wunderground v.1.15,2013-04-23 04:28:00,
2013-04-22 23:30:00,36.2,34.6,30.01,NNE,27,5.0,6.0,94,0.00,,,0.35,0,Wunderground v.1.15,2013-04-23 04:30:00,
2013-04-22 23:32:00,36.1,34.5,30.01,NNE,26,8.0,8.0,94,0.00,,,0.35,0,Wunderground v.1.15,2013-04-23 04:32:00,
2013-04-22 23:34:00,36.0,34.4,30.01,NNW,330,12.0,15.0,94,0.00,,,0.35,0,Wunderground v.1.15,2013-04-23 04:34:00,
2013-04-22 23:36:00,35.9,34.3,30.02,NNW,329,10.0,17.0,94,0.00,,,0.35,0,Wunderground v.1.15,2013-04-23 04:36:00,
2013-04-22 23:37:00,36.0,34.2,30.02,NNW,339,7.0,18.0,93,0.00,,,0.35,0,Wunderground v.1.15,2013-04-23 04:37:00,
2013-04-22 23:38:00,36.0,34.2,30.03,NW,312,15.0,18.0,93,0.00,,,0.35,0,Wunderground v.1.15,2013-04-23 04:38:00,
2013-04-22 23:40:00,36.0,34.2,30.02,NW,314,12.0,12.0,93,0.00,,,0.35,0,Wunderground v.1.15,2013-04-23 04:40:00,
2013-04-22 23:42:00,35.9,34.1,30.02,North,355,12.0,12.0,93,0.00,,,0.35,0,Wunderground v.1.15,2013-04-23 04:42:00,
2013-04-22 23:43:00,35.9,34.1,30.02,NW,324,7.0,12.0,93,0.00,,,0.35,0,Wunderground v.1.15,2013-04-23 04:43:00,
2013-04-22 23:45:00,35.9,34.1,30.02,NW,311,5.0,12.0,93,0.00,,,0.35,0,Wunderground v.1.15,2013-04-23 04:45:00,
2013-04-22 23:47:00,35.8,34.0,30.02,WNW,283,9.0,12.0,93,0.00,,,0.35,0,Wunderground v.1.15,2013-04-23 04:47:00,
2013-04-22 23:50:00,35.7,33.9,30.02,NNW,330,9.0,9.0,93,0.00,,,0.35,0,Wunderground v.1.15,2013-04-23 04:50:00,
2013-04-22 23:51:00,35.7,33.9,30.02,NNW,342,10.0,12.0,93,0.00,,,0.35,0,Wunderground v.1.15,2013-04-23 04:51:00,
2013-04-22 23:53:00,35.7,33.9,30.03,NW,320,11.0,13.0,93,0.00,,,0.35,0,Wunderground v.1.15,2013-04-23 04:53:00,
2013-04-22 23:55:00,35.6,33.8,30.03,North,360,2.0,15.0,93,0.00,,,0.35,0,Wunderground v.1.15,2013-04-23 04:55:00,
2013-04-22 23:57:00,35.5,33.7,30.03,North,351,2.0,15.0,93,0.00,,,0.35,0,Wunderground v.1.15,2013-04-23 04:57:00,
2013-04-22 23:58:00,35.5,33.7,30.03,North,355,12.0,15.0,93,0.00,,,0.00,0,Wunderground v.1.15,2013-04-23 04:58:00,
2013-04-22 23:59:00,35.5,33.7,30.03,NW,319,16.0,16.0,93,0.00,,,0.00,0,Wunderground v.1.15,2013-04-23 04:59:00,